Wetterdaten: Donnerstag, 28.07.2016
Datum Zeit Temp. Aussen Temp. o. S. +5cm Feuchte Auss BlattFeu 1 Luftdruck Regen Sonnenschein Regendauer Solar Windben Empfang
28.07.2016 00:00 20,2 C 20,0 C 18,9 C 77 % 0 lf 1015,9 hPa 0,0 l/m 0 min 0 min 0 W/m 6,3 km/h (2 Bft) 97,87 %
28.07.2016 00:02 20,2 C 20,0 C 18,9 C 77 % 0 lf 1015,9 hPa 0,0 l/m 0 min 0 min 0 W/m 8,4 km/h (2 Bft) 97,30 %
28.07.2016 00:06 20,1 C 20,0 C 18,9 C 77 % 0 lf 1015,9 hPa 0,0 l/m 0 min 0 min 0 W/m 8,4 km/h (2 Bft) 97,87 %
28.07.2016 00:08 20,1 C 20,0 C 18,3 C 77 % 0 lf 1015,9 hPa 0,0 l/m 0 min 0 min 0 W/m 6,3 km/h (2 Bft) 100,00 %
28.07.2016 00:10 20,1 C 20,0 C 18,9 C 77 % 0 lf 1015,9 hPa 0,0 l/m 0 min 0 min 0 W/m 4,2 km/h (1 Bft) 100,00 %
28.07.2016 00:12 20,1 C 20,0 C 18,9 C 77 % 0 lf 1015,9 hPa 0,0 l/m 0 min 0 min 0 W/m 6,3 km/h (2 Bft) 100,00 %
28.07.2016 00:14 20,1 C 20,0 C 18,9 C 77 % 0 lf 1015,9 hPa 0,0 l/m 0 min 0 min 0 W/m 6,3 km/h (2 Bft) 95,74 %
28.07.2016 00:16 20,1 C 20,0 C 18,3 C 77 % 0 lf 1015,9 hPa 0,0 l/m 0 min 0 min 0 W/m 6,3 km/h (2 Bft) 97,87 %
28.07.2016 00:18 20,1 C 20,0 C 18,3 C 77 % 0 lf 1015,9 hPa 0,0 l/m 0 min 0 min 0 W/m 6,3 km/h (2 Bft) 95,74 %
28.07.2016 00:20 20,1 C 19,4 C 18,3 C 78 % 0 lf 1015,9 hPa 0,0 l/m 0 min 0 min 0 W/m 4,2 km/h (1 Bft) 97,87 %
28.07.2016 00:22 20,1 C 19,4 C 18,3 C 77 % 0 lf 1015,9 hPa 0,0 l/m 0 min 0 min 0 W/m 4,2 km/h (1 Bft) 95,65 %
28.07.2016 00:24 20,1 C 19,4 C 18,3 C 77 % 0 lf 1015,9 hPa 0,0 l/m 0 min 0 min 0 W/m 6,3 km/h (2 Bft) 93,62 %
28.07.2016 00:26 20,1 C 19,4 C 18,3 C 77 % 0 lf 1015,9 hPa 0,0 l/m 0 min 0 min 0 W/m 4,2 km/h (1 Bft) 97,87 %
28.07.2016 00:28 20,1 C 19,4 C 18,3 C 77 % 0 lf 1016,0 hPa 0,0 l/m 0 min 0 min 0 W/m 10,5 km/h (2 Bft) 95,74 %
28.07.2016 00:30 20,0 C 19,4 C 18,3 C 78 % 0 lf 1015,9 hPa 0,0 l/m 0 min 0 min 0 W/m 6,3 km/h (2 Bft) 95,74 %
28.07.2016 00:32 20,0 C 19,4 C 18,3 C 78 % 0 lf 1015,9 hPa 0,0 l/m 0 min 0 min 0 W/m 6,3 km/h (2 Bft) 97,87 %
28.07.2016 00:34 20,0 C 19,4 C 18,3 C 78 % 0 lf 1015,9 hPa 0,0 l/m 0 min 0 min 0 W/m 8,4 km/h (2 Bft) 97,83 %
28.07.2016 00:36 20,0 C 19,4 C 18,3 C 78 % 0 lf 1015,9 hPa 0,0 l/m 0 min 0 min 0 W/m 4,2 km/h (1 Bft) 93,62 %
28.07.2016 00:38 20,0 C 19,4 C 18,3 C 78 % 0 lf 1015,9 hPa 0,0 l/m 0 min 0 min 0 W/m 6,3 km/h (2 Bft) 95,74 %
28.07.2016 00:40 20,0 C 19,4 C 18,3 C 78 % 0 lf 1015,9 hPa 0,0 l/m 0 min 0 min 0 W/m 4,2 km/h (1 Bft) 95,74 %
28.07.2016 00:42 19,9 C 19,4 C 18,3 C 78 % 0 lf 1015,9 hPa 0,0 l/m 0 min 0 min 0 W/m 8,4 km/h (2 Bft) 95,74 %
28.07.2016 00:44 19,9 C 19,4 C 18,3 C 78 % 0 lf 1015,9 hPa 0,0 l/m 0 min 0 min 0 W/m 6,3 km/h (2 Bft) 95,65 %
28.07.2016 00:46 19,9 C 19,4 C 18,3 C 78 % 0 lf 1015,9 hPa 0,0 l/m 0 min 0 min 0 W/m 6,3 km/h (2 Bft) 95,74 %
28.07.2016 00:48 19,9 C 19,4 C 18,3 C 78 % 0 lf 1015,9 hPa 0,0 l/m 0 min 0 min 0 W/m 6,3 km/h (2 Bft) 95,74 %
28.07.2016 00:50 19,9 C 19,4 C 18,3 C 78 % 0 lf 1015,9 hPa 0,0 l/m 0 min 0 min 0 W/m 6,3 km/h (2 Bft) 100,00 %
28.07.2016 00:52 19,8 C 19,4 C 18,3 C 78 % 0 lf 1015,9 hPa 0,0 l/m 0 min 0 min 0 W/m 6,3 km/h (2 Bft) 95,74 %
28.07.2016 00:54 19,8 C 19,4 C 17,8 C 78 % 0 lf 1015,9 hPa 0,0 l/m 0 min 0 min 0 W/m 4,2 km/h (1 Bft) 97,87 %
28.07.2016 00:56 19,8 C 19,4 C 17,8 C 78 % 0 lf 1015,8 hPa 0,0 l/m 0 min 0 min 0 W/m 6,3 km/h (2 Bft) 93,48 %
28.07.2016 00:58 19,8 C 19,4 C 17,8 C 78 % 0 lf 1015,9 hPa 0,0 l/m 0 min 0 min 0 W/m 10,5 km/h (2 Bft) 97,87 %
28.07.2016 01:00 19,8 C 19,4 C 18,3 C 78 % 0 lf 1015,8 hPa 0,0 l/m 0 min 0 min 0 W/m 10,5 km/h (2 Bft) 95,74 %
28.07.2016 01:02 19,8 C 19,4 C 17,8 C 78 % 2 lf 1015,8 hPa 0,0 l/m 0 min 0 min 0 W/m 8,4 km/h (2 Bft) 97,87 %
28.07.2016 01:04 19,8 C 19,4 C 17,8 C 79 % 0 lf 1015,8 hPa 0,0 l/m 0 min 0 min 0 W/m 8,4 km/h (2 Bft) 97,87 %
28.07.2016 01:06 19,7 C 18,9 C 17,8 C 79 % 11 lf 1015,8 hPa 0,0 l/m 0 min 2 min 0 W/m 8,4 km/h (2 Bft) 98,00 %
28.07.2016 01:08 19,7 C 18,9 C 17,8 C 79 % 15 lf 1015,8 hPa 0,0 l/m 0 min 2 min 0 W/m 8,4 km/h (2 Bft) 93,48 %
28.07.2016 01:10 19,7 C 18,9 C 17,8 C 79 % 14 lf 1015,8 hPa 0,0 l/m 0 min 0 min 0 W/m 8,4 km/h (2 Bft) 93,62 %
28.07.2016 01:12 19,7 C 18,9 C 17,8 C 79 % 6 lf 1015,9 hPa 0,0 l/m 0 min 0 min 0 W/m 8,4 km/h (2 Bft) 97,87 %
28.07.2016 01:14 19,7 C 18,9 C 17,8 C 79 % 3 lf 1015,8 hPa 0,0 l/m 0 min 0 min 0 W/m 8,4 km/h (2 Bft) 95,74 %
28.07.2016 01:16 19,7 C 18,9 C 17,8 C 79 % 1 lf 1015,8 hPa 0,0 l/m 0 min 0 min 0 W/m 8,4 km/h (2 Bft) 97,87 %
28.07.2016 01:18 19,7 C 18,9 C 17,8 C 79 % 1 lf 1015,8 hPa 0,0 l/m 0 min 0 min 0 W/m 8,4 km/h (2 Bft) 95,74 %
28.07.2016 01:20 19,6 C 18,9 C 17,8 C 79 % 1 lf 1015,8 hPa 0,0 l/m 0 min 0 min 0 W/m 12,6 km/h (3 Bft) 95,65 %
28.07.2016 01:22 19,6 C 18,9 C 17,8 C 79 % 1 lf 1015,8 hPa 0,0 l/m 0 min 2 min 0 W/m 6,3 km/h (2 Bft) 97,87 %
28.07.2016 01:24 19,6 C 18,9 C 17,8 C 79 % 9 lf 1015,8 hPa 0,0 l/m 0 min 2 min 0 W/m 10,5 km/h (2 Bft) 97,87 %
28.07.2016 01:26 19,6 C 18,9 C 17,8 C 80 % 4 lf 1015,8 hPa 0,0 l/m 0 min 2 min 0 W/m 12,6 km/h (3 Bft) 97,87 %
28.07.2016 01:28 19,6 C 18,9 C 17,8 C 80 % 11 lf 1015,8 hPa 0,0 l/m 0 min 2 min 5 W/m 10,5 km/h (2 Bft) 95,74 %
28.07.2016 01:30 19,6 C 18,9 C 17,8 C 80 % 15 lf 1015,8 hPa 0,0 l/m 0 min 0 min 0 W/m 10,5 km/h (2 Bft) 97,83 %
28.07.2016 01:32 19,6 C 18,9 C 17,2 C 81 % 15 lf 1015,8 hPa 0,0 l/m 0 min 2 min 0 W/m 12,6 km/h (3 Bft) 100,00 %
28.07.2016 01:34 19,6 C 18,3 C 16,7 C 81 % 15 lf 1015,8 hPa 0,0 l/m 0 min 2 min 0 W/m 12,6 km/h (3 Bft) 97,87 %
28.07.2016 01:36 19,6 C 17,8 C 16,7 C 81 % 15 lf 1015,8 hPa 0,0 l/m 0 min 2 min 5 W/m 10,5 km/h (2 Bft) 93,62 %
28.07.2016 01:38 19,5 C 17,8 C 16,7 C 82 % 15 lf 1015,8 hPa 0,0 l/m 0 min 0 min 5 W/m 8,4 km/h (2 Bft) 97,87 %
28.07.2016 01:40 19,5 C 18,3 C 16,7 C 82 % 15 lf 1015,7 hPa 0,0 l/m 0 min 0 min 0 W/m 8,4 km/h (2 Bft) 95,74 %
28.07.2016 01:42 19,4 C 18,3 C 16,7 C 82 % 15 lf 1015,8 hPa 0,0 l/m 0 min 0 min 5 W/m 10,5 km/h (2 Bft) 95,65 %
28.07.2016 01:44 19,4 C 18,3 C 16,7 C 82 % 15 lf 1015,8 hPa 0,0 l/m 0 min 2 min 5 W/m 6,3 km/h (2 Bft) 95,74 %
28.07.2016 01:46 19,4 C 18,3 C 16,7 C 82 % 15 lf 1015,8 hPa 0,0 l/m 0 min 0 min 5 W/m 6,3 km/h (2 Bft) 91,49 %
28.07.2016 01:48 19,4 C 18,3 C 16,7 C 82 % 15 lf 1015,8 hPa 0,0 l/m 0 min 0 min 5 W/m 10,5 km/h (2 Bft) 100,00 %
28.07.2016 01:50 19,4 C 18,3 C 16,7 C 82 % 15 lf 1015,8 hPa 0,0 l/m 0 min 0 min 5 W/m 10,5 km/h (2 Bft) 100,00 %
28.07.2016 01:52 19,4 C 18,3 C 17,2 C 83 % 15 lf 1015,8 hPa 0,0 l/m 0 min 0 min 5 W/m 10,5 km/h (2 Bft) 95,74 %
28.07.2016 01:54 19,3 C 18,3 C 17,2 C 83 % 15 lf 1015,8 hPa 0,0 l/m 0 min 0 min 0 W/m 10,5 km/h (2 Bft) 97,83 %
28.07.2016 01:56 19,3 C 18,3 C 17,2 C 83 % 15 lf 1015,8 hPa 0,0 l/m 0 min 0 min 5 W/m 8,4 km/h (2 Bft) 100,00 %
28.07.2016 01:58 19,3 C 18,3 C 17,2 C 84 % 14 lf 1015,8 hPa 0,0 l/m 0 min 0 min 5 W/m 10,5 km/h (2 Bft) 97,87 %
28.07.2016 02:00 19,2 C 18,3 C 17,2 C 84 % 13 lf 1015,8 hPa 0,0 l/m 0 min 0 min 5 W/m 10,5 km/h (2 Bft) 100,00 %
28.07.2016 02:02 19,2 C 18,3 C 17,2 C 84 % 12 lf 1015,8 hPa 0,0 l/m 0 min 0 min 5 W/m 8,4 km/h (2 Bft) 93,62 %
28.07.2016 02:04 19,2 C 18,3 C 17,2 C 84 % 11 lf 1015,8 hPa 0,0 l/m 0 min 0 min 5 W/m 6,3 km/h (2 Bft) 97,87 %
28.07.2016 02:06 19,2 C 18,3 C 17,2 C 84 % 10 lf 1015,8 hPa 0,0 l/m 0 min 0 min 5 W/m 8,4 km/h (2 Bft) 93,48 %
28.07.2016 02:08 19,1 C 18,3 C 17,2 C 84 % 9 lf 1015,8 hPa 0,0 l/m 0 min 0 min 5 W/m 8,4 km/h (2 Bft) 95,74 %
28.07.2016 02:10 19,1 C 18,3 C 17,2 C 84 % 8 lf 1015,7 hPa 0,0 l/m 0 min 0 min 5 W/m 14,6 km/h (3 Bft) 95,74 %
28.07.2016 02:12 19,1 C 18,3 C 17,2 C 84 % 7 lf 1015,7 hPa 0,0 l/m 0 min 0 min 5 W/m 10,5 km/h (2 Bft) 95,74 %
28.07.2016 02:14 19,0 C 18,3 C 17,2 C 84 % 6 lf 1015,7 hPa 0,0 l/m 0 min 0 min 5 W/m 8,4 km/h (2 Bft) 91,49 %
28.07.2016 02:16 19,0 C 18,3 C 17,2 C 85 % 5 lf 1015,7 hPa 0,0 l/m 0 min 0 min 5 W/m 8,4 km/h (2 Bft) 93,62 %
28.07.2016 02:18 19,0 C 18,3 C 17,2 C 85 % 5 lf 1015,8 hPa 0,0 l/m 0 min 0 min 5 W/m 10,5 km/h (2 Bft) 93,48 %
28.07.2016 02:20 18,9 C 18,3 C 17,2 C 85 % 5 lf 1015,7 hPa 0,0 l/m 0 min 0 min 5 W/m 10,5 km/h (2 Bft) 93,62 %
28.07.2016 02:22 18,9 C 18,3 C 17,2 C 85 % 4 lf 1015,7 hPa 0,0 l/m 0 min 0 min 5 W/m 10,5 km/h (2 Bft) 95,74 %
28.07.2016 02:24 18,9 C 18,3 C 17,2 C 85 % 4 lf 1015,7 hPa 0,0 l/m 0 min 0 min 5 W/m 8,4 km/h (2 Bft) 93,62 %
28.07.2016 02:26 18,9 C 18,3 C 17,2 C 86 % 4 lf 1015,7 hPa 0,0 l/m 0 min 0 min 5 W/m 8,4 km/h (2 Bft) 91,49 %
28.07.2016 02:28 18,9 C 18,3 C 17,2 C 86 % 4 lf 1015,7 hPa 0,0 l/m 0 min 0 min 5 W/m 8,4 km/h (2 Bft) 95,74 %
28.07.2016 02:30 18,9 C 18,3 C 17,2 C 86 % 4 lf 1015,7 hPa 0,0 l/m 0 min 0 min 5 W/m 6,3 km/h (2 Bft) 93,48 %
28.07.2016 02:32 18,8 C 18,3 C 17,2 C 86 % 4 lf 1015,6 hPa 0,0 l/m 0 min 0 min 5 W/m 8,4 km/h (2 Bft) 89,36 %
28.07.2016 02:34 18,8 C 18,3 C 17,2 C 86 % 4 lf 1015,6 hPa 0,0 l/m 0 min 0 min 5 W/m 8,4 km/h (2 Bft) 93,62 %
28.07.2016 02:36 18,8 C 18,3 C 17,2 C 86 % 4 lf 1015,5 hPa 0,0 l/m 0 min 0 min 5 W/m 10,5 km/h (2 Bft) 93,62 %
28.07.2016 02:38 18,8 C 18,3 C 17,2 C 86 % 4 lf 1015,5 hPa 0,0 l/m 0 min 0 min 5 W/m 10,5 km/h (2 Bft) 91,49 %
28.07.2016 02:40 18,8 C 18,3 C 17,2 C 86 % 4 lf 1015,6 hPa 0,0 l/m 0 min 0 min 5 W/m 14,6 km/h (3 Bft) 89,36 %
28.07.2016 02:42 18,8 C 18,9 C 17,2 C 86 % 3 lf 1015,6 hPa 0,0 l/m 0 min 0 min 5 W/m 18,8 km/h (3 Bft) 93,48 %
28.07.2016 02:44 18,8 C 18,9 C 17,2 C 86 % 4 lf 1015,6 hPa 0,0 l/m 0 min 0 min 5 W/m 16,7 km/h (3 Bft) 93,62 %
28.07.2016 02:46 18,8 C 18,9 C 17,2 C 86 % 4 lf 1015,6 hPa 0,0 l/m 0 min 0 min 5 W/m 18,8 km/h (3 Bft) 93,62 %
28.07.2016 02:48 18,7 C 18,3 C 17,2 C 87 % 4 lf 1015,6 hPa 0,0 l/m 0 min 0 min 5 W/m 14,6 km/h (3 Bft) 93,62 %
28.07.2016 02:50 18,7 C 18,3 C 17,2 C 87 % 4 lf 1015,5 hPa 0,0 l/m 0 min 0 min 5 W/m 16,7 km/h (3 Bft) 93,62 %
28.07.2016 02:52 18,7 C 18,3 C 17,2 C 87 % 4 lf 1015,5 hPa 0,0 l/m 0 min 0 min 5 W/m 12,6 km/h (3 Bft) 93,62 %
28.07.2016 02:54 18,7 C 18,3 C 17,2 C 87 % 4 lf 1015,5 hPa 0,0 l/m 0 min 0 min 5 W/m 8,4 km/h (2 Bft) 95,65 %
28.07.2016 02:56 18,7 C 18,3 C 17,2 C 87 % 4 lf 1015,5 hPa 0,0 l/m 0 min 0 min 5 W/m 16,7 km/h (3 Bft) 95,74 %
28.07.2016 02:58 18,7 C 18,3 C 17,2 C 87 % 5 lf 1015,5 hPa 0,0 l/m 0 min 0 min 5 W/m 18,8 km/h (3 Bft) 97,87 %
28.07.2016 03:00 18,7 C 18,3 C 17,2 C 87 % 13 lf 1015,5 hPa 0,0 l/m 0 min 0 min 5 W/m 14,6 km/h (3 Bft) 97,87 %
28.07.2016 03:02 18,7 C 18,3 C 16,7 C 88 % 15 lf 1015,4 hPa 0,0 l/m 0 min 0 min 5 W/m 16,7 km/h (3 Bft) 95,74 %
28.07.2016 03:04 18,7 C 17,8 C 16,7 C 88 % 15 lf 1015,5 hPa 0,0 l/m 0 min 2 min 5 W/m 16,7 km/h (3 Bft) 93,62 %
28.07.2016 03:06 18,7 C 17,8 C 16,7 C 88 % 15 lf 1015,4 hPa 0,0 l/m 0 min 2 min 5 W/m 12,6 km/h (3 Bft) 97,83 %
28.07.2016 03:08 18,7 C 17,8 C 16,1 C 89 % 15 lf 1015,5 hPa 0,0 l/m 0 min 2 min 5 W/m 16,7 km/h (3 Bft) 97,87 %
28.07.2016 03:10 18,7 C 17,2 C 16,1 C 89 % 15 lf 1015,5 hPa 0,0 l/m 0 min 2 min 5 W/m 12,6 km/h (3 Bft) 95,74 %
28.07.2016 03:12 18,7 C 17,2 C 16,1 C 89 % 15 lf 1015,5 hPa 0,0 l/m 0 min 2 min 5 W/m 8,4 km/h (2 Bft) 95,74 %
28.07.2016 03:14 18,7 C 17,2 C 16,1 C 89 % 15 lf 1015,5 hPa 0,0 l/m 0 min 0 min 5 W/m 12,6 km/h (3 Bft) 97,87 %
28.07.2016 03:16 18,6 C 17,2 C 16,1 C 89 % 15 lf 1015,5 hPa 0,0 l/m 0 min 0 min 5 W/m 8,4 km/h (2 Bft) 97,83 %
28.07.2016 03:18 18,6 C 17,2 C 16,1 C 90 % 15 lf 1015,4 hPa 0,0 l/m 0 min 0 min 5 W/m 8,4 km/h (2 Bft) 97,87 %
28.07.2016 03:20 18,6 C 17,2 C 16,1 C 90 % 15 lf 1015,5 hPa 0,0 l/m 0 min 2 min 5 W/m 10,5 km/h (2 Bft) 93,62 %
28.07.2016 03:22 18,6 C 17,2 C 16,1 C 90 % 15 lf 1015,5 hPa 0,0 l/m 0 min 0 min 5 W/m 10,5 km/h (2 Bft) 100,00 %
28.07.2016 03:24 18,6 C 17,2 C 16,1 C 90 % 15 lf 1015,6 hPa 0,0 l/m 0 min 2 min 5 W/m 14,6 km/h (3 Bft) 100,00 %
28.07.2016 03:26 18,6 C 17,2 C 16,1 C 90 % 15 lf 1015,6 hPa 0,2 l/m 0 min 2 min 5 W/m 10,5 km/h (2 Bft) 97,87 %
28.07.2016 03:28 18,5 C 17,2 C 16,1 C 91 % 15 lf 1015,5 hPa 0,0 l/m 0 min 2 min 5 W/m 6,3 km/h (2 Bft) 97,83 %
28.07.2016 03:30 18,5 C 17,2 C 16,1 C 91 % 15 lf 1015,5 hPa 0,0 l/m 0 min 2 min 5 W/m 8,4 km/h (2 Bft) 100,00 %
28.07.2016 03:32 18,4 C 17,2 C 16,1 C 91 % 15 lf 1015,5 hPa 0,0 l/m 0 min 2 min 5 W/m 6,3 km/h (2 Bft) 100,00 %
28.07.2016 03:34 18,4 C 17,2 C 16,1 C 91 % 15 lf 1015,5 hPa 0,0 l/m 0 min 2 min 5 W/m 6,3 km/h (2 Bft) 95,74 %
28.07.2016 03:36 18,4 C 17,2 C 16,1 C 91 % 15 lf 1015,3 hPa 0,2 l/m 0 min 2 min 5 W/m 8,4 km/h (2 Bft) 95,74 %
28.07.2016 03:38 18,4 C 17,2 C 16,1 C 91 % 15 lf 1015,3 hPa 0,0 l/m 0 min 0 min 5 W/m 2,1 km/h (1 Bft) 93,62 %
28.07.2016 03:40 18,4 C 17,2 C 16,1 C 91 % 15 lf 1015,3 hPa 0,0 l/m 0 min 0 min 5 W/m 6,3 km/h (2 Bft) 100,00 %
28.07.2016 03:42 18,3 C 17,2 C 16,1 C 91 % 15 lf 1015,3 hPa 0,0 l/m 0 min 2 min 5 W/m 6,3 km/h (2 Bft) 97,87 %
28.07.2016 03:44 18,3 C 17,2 C 16,1 C 91 % 15 lf 1015,4 hPa 0,0 l/m 0 min 0 min 5 W/m 8,4 km/h (2 Bft) 95,74 %
28.07.2016 03:46 18,3 C 17,2 C 16,1 C 91 % 15 lf 1015,4 hPa 0,0 l/m 0 min 0 min 5 W/m 6,3 km/h (2 Bft) 97,87 %
28.07.2016 03:48 18,3 C 17,2 C 16,1 C 92 % 15 lf 1015,3 hPa 0,0 l/m 0 min 0 min 5 W/m 8,4 km/h (2 Bft) 97,87 %
28.07.2016 03:50 18,3 C 17,2 C 16,1 C 92 % 15 lf 1015,4 hPa 0,0 l/m 0 min 0 min 5 W/m 10,5 km/h (2 Bft) 100,00 %
28.07.2016 03:52 18,3 C 17,2 C 16,1 C 92 % 15 lf 1015,3 hPa 0,0 l/m 0 min 0 min 5 W/m 8,4 km/h (2 Bft) 100,00 %
28.07.2016 03:54 18,2 C 16,7 C 16,1 C 92 % 15 lf 1015,3 hPa 0,0 l/m 0 min 0 min 5 W/m 8,4 km/h (2 Bft) 97,87 %
28.07.2016 03:56 18,2 C 16,7 C 16,1 C 92 % 15 lf 1015,3 hPa 0,0 l/m 0 min 0 min 5 W/m 6,3 km/h (2 Bft) 95,74 %
28.07.2016 03:58 18,2 C 16,7 C 16,1 C 92 % 15 lf 1015,3 hPa 0,0 l/m 0 min 0 min 5 W/m 4,2 km/h (1 Bft) 93,62 %
28.07.2016 04:00 18,2 C 16,7 C 16,1 C 92 % 15 lf 1015,3 hPa 0,0 l/m 0 min 0 min 5 W/m 6,3 km/h (2 Bft) 93,62 %
28.07.2016 04:02 18,1 C 16,7 C 16,1 C 92 % 15 lf 1015,3 hPa 0,0 l/m 0 min 0 min 5 W/m 4,2 km/h (1 Bft) 100,00 %
28.07.2016 04:04 18,1 C 17,2 C 16,1 C 92 % 15 lf 1015,3 hPa 0,0 l/m 0 min 0 min 5 W/m 6,3 km/h (2 Bft) 95,74 %
28.07.2016 04:06 18,1 C 17,2 C 16,1 C 92 % 15 lf 1015,2 hPa 0,0 l/m 0 min 0 min 5 W/m 4,2 km/h (1 Bft) 97,92 %
28.07.2016 04:08 18,1 C 17,2 C 16,1 C 93 % 15 lf 1015,2 hPa 0,0 l/m 0 min 0 min 5 W/m 4,2 km/h (1 Bft) 97,87 %
28.07.2016 04:10 18,1 C 17,2 C 16,1 C 93 % 15 lf 1015,1 hPa 0,0 l/m 0 min 2 min 5 W/m 4,2 km/h (1 Bft) 89,36 %
28.07.2016 04:12 18,1 C 16,7 C 16,1 C 92 % 15 lf 1015,0 hPa 0,0 l/m 0 min 2 min 5 W/m 2,1 km/h (1 Bft) 95,74 %
28.07.2016 04:14 18,1 C 17,2 C 16,1 C 92 % 15 lf 1015,1 hPa 0,0 l/m 0 min 0 min 5 W/m 2,1 km/h (1 Bft) 93,62 %
28.07.2016 04:16 18,0 C 17,2 C 16,1 C 93 % 15 lf 1015,1 hPa 0,0 l/m 0 min 2 min 5 W/m 4,2 km/h (1 Bft) 95,65 %
28.07.2016 04:18 18,0 C 17,2 C 16,1 C 93 % 15 lf 1015,2 hPa 0,0 l/m 0 min 0 min 5 W/m 4,2 km/h (1 Bft) 95,74 %
28.07.2016 04:20 18,0 C 17,2 C 16,1 C 93 % 15 lf 1015,3 hPa 0,0 l/m 0 min 2 min 5 W/m 4,2 km/h (1 Bft) 93,62 %
28.07.2016 04:22 18,0 C 17,2 C 16,1 C 93 % 15 lf 1015,2 hPa 0,0 l/m 0 min 2 min 5 W/m 2,1 km/h (1 Bft) 95,74 %
28.07.2016 04:24 18,0 C 17,2 C 16,1 C 93 % 15 lf 1015,3 hPa 0,0 l/m 0 min 2 min 5 W/m 4,2 km/h (1 Bft) 95,74 %
28.07.2016 04:26 18,0 C 17,2 C 16,1 C 93 % 15 lf 1015,2 hPa 0,0 l/m 0 min 2 min 5 W/m 4,2 km/h (1 Bft) 93,48 %
28.07.2016 04:28 17,9 C 17,2 C 16,1 C 93 % 15 lf 1015,2 hPa 0,0 l/m 0 min 2 min 5 W/m 2,1 km/h (1 Bft) 91,49 %
28.07.2016 04:30 17,9 C 17,2 C 16,1 C 93 % 15 lf 1015,2 hPa 0,0 l/m 0 min 2 min 5 W/m 4,2 km/h (1 Bft) 93,62 %
28.07.2016 04:32 17,9 C 17,2 C 16,1 C 93 % 15 lf 1015,2 hPa 0,0 l/m 0 min 0 min 5 W/m 2,1 km/h (1 Bft) 93,62 %
28.07.2016 04:34 17,9 C 17,2 C 16,1 C 93 % 15 lf 1015,2 hPa 0,0 l/m 0 min 0 min 5 W/m 4,2 km/h (1 Bft) 93,62 %
28.07.2016 04:36 17,9 C 17,2 C 16,1 C 93 % 15 lf 1015,2 hPa 0,0 l/m 0 min 0 min 5 W/m 4,2 km/h (1 Bft) 95,74 %
28.07.2016 04:38 17,9 C 17,2 C 16,1 C 93 % 15 lf 1015,2 hPa 0,0 l/m 0 min 2 min 5 W/m 2,1 km/h (1 Bft) 95,65 %
28.07.2016 04:40 17,9 C 17,2 C 16,1 C 93 % 15 lf 1015,2 hPa 0,0 l/m 0 min 0 min 5 W/m 4,2 km/h (1 Bft) 95,74 %
28.07.2016 04:42 17,9 C 17,2 C 16,1 C 93 % 15 lf 1015,2 hPa 0,0 l/m 0 min 0 min 5 W/m 4,2 km/h (1 Bft) 100,00 %
28.07.2016 04:44 17,9 C 17,2 C 16,1 C 93 % 15 lf 1015,1 hPa 0,0 l/m 0 min 0 min 5 W/m 6,3 km/h (2 Bft) 95,74 %
28.07.2016 04:46 17,9 C 17,2 C 16,1 C 93 % 15 lf 1015,2 hPa 0,0 l/m 0 min 0 min 5 W/m 6,3 km/h (2 Bft) 97,87 %
28.07.2016 04:48 17,9 C 17,2 C 16,1 C 93 % 15 lf 1015,2 hPa 0,0 l/m 0 min 0 min 5 W/m 2,1 km/h (1 Bft) 95,74 %
28.07.2016 04:50 17,9 C 17,2 C 16,1 C 93 % 15 lf 1015,1 hPa 0,0 l/m 0 min 0 min 5 W/m 4,2 km/h (1 Bft) 100,00 %
28.07.2016 04:52 17,9 C 17,2 C 16,1 C 93 % 15 lf 1015,2 hPa 0,0 l/m 0 min 0 min 5 W/m 4,2 km/h (1 Bft) 97,87 %
28.07.2016 04:54 17,8 C 17,2 C 16,1 C 93 % 15 lf 1015,2 hPa 0,0 l/m 0 min 0 min 5 W/m 6,3 km/h (2 Bft) 97,87 %
28.07.2016 04:56 17,9 C 17,2 C 16,1 C 94 % 15 lf 1015,1 hPa 0,0 l/m 0 min 0 min 5 W/m 6,3 km/h (2 Bft) 93,62 %
28.07.2016 04:58 17,8 C 17,2 C 16,1 C 94 % 15 lf 1015,1 hPa 0,0 l/m 0 min 0 min 5 W/m 4,2 km/h (1 Bft) 95,74 %
28.07.2016 05:00 17,8 C 17,2 C 16,1 C 94 % 15 lf 1015,2 hPa 0,0 l/m 0 min 0 min 5 W/m 4,2 km/h (1 Bft) 97,87 %
28.07.2016 05:02 17,8 C 17,2 C 16,1 C 94 % 15 lf 1015,0 hPa 0,0 l/m 0 min 0 min 5 W/m 4,2 km/h (1 Bft) 93,48 %
28.07.2016 05:04 17,8 C 17,2 C 16,1 C 94 % 15 lf 1015,1 hPa 0,0 l/m 0 min 0 min 5 W/m 4,2 km/h (1 Bft) 97,87 %
28.07.2016 05:06 17,8 C 17,2 C 16,1 C 94 % 15 lf 1015,1 hPa 0,0 l/m 0 min 0 min 5 W/m 4,2 km/h (1 Bft) 93,62 %
28.07.2016 05:08 17,8 C 17,2 C 16,1 C 94 % 15 lf 1015,1 hPa 0,0 l/m 0 min 0 min 5 W/m 4,2 km/h (1 Bft) 93,62 %
28.07.2016 05:10 17,8 C 17,2 C 16,1 C 94 % 15 lf 1015,1 hPa 0,0 l/m 0 min 0 min 5 W/m 4,2 km/h (1 Bft) 97,87 %
28.07.2016 05:12 17,8 C 17,2 C 16,1 C 94 % 15 lf 1015,1 hPa 0,0 l/m 0 min 0 min 5 W/m 4,2 km/h (1 Bft) 97,83 %
28.07.2016 05:14 17,8 C 17,2 C 16,1 C 94 % 15 lf 1015,1 hPa 0,0 l/m 0 min 0 min 5 W/m 4,2 km/h (1 Bft) 95,74 %
28.07.2016 05:16 17,8 C 17,2 C 16,1 C 94 % 15 lf 1015,1 hPa 0,0 l/m 0 min 0 min 5 W/m 6,3 km/h (2 Bft) 97,87 %
28.07.2016 05:18 17,8 C 17,2 C 16,1 C 94 % 15 lf 1015,0 hPa 0,0 l/m 0 min 0 min 5 W/m 4,2 km/h (1 Bft) 95,74 %
28.07.2016 05:20 17,8 C 17,2 C 16,1 C 94 % 15 lf 1014,9 hPa 0,0 l/m 0 min 0 min 5 W/m 4,2 km/h (1 Bft) 95,74 %
28.07.2016 05:22 17,8 C 17,2 C 16,1 C 94 % 15 lf 1015,0 hPa 0,0 l/m 0 min 0 min 5 W/m 6,3 km/h (2 Bft) 97,87 %
28.07.2016 05:24 17,8 C 17,2 C 16,1 C 94 % 15 lf 1015,0 hPa 0,0 l/m 0 min 0 min 5 W/m 4,2 km/h (1 Bft) 95,74 %
28.07.2016 05:26 17,8 C 17,2 C 16,1 C 94 % 15 lf 1015,0 hPa 0,0 l/m 0 min 0 min 5 W/m 8,4 km/h (2 Bft) 95,65 %
28.07.2016 05:28 17,8 C 17,2 C 16,1 C 94 % 15 lf 1015,0 hPa 0,0 l/m 0 min 0 min 5 W/m 6,3 km/h (2 Bft) 97,87 %
28.07.2016 05:30 17,8 C 17,2 C 16,1 C 94 % 15 lf 1015,0 hPa 0,0 l/m 0 min 0 min 5 W/m 6,3 km/h (2 Bft) 93,62 %
28.07.2016 05:32 17,8 C 17,2 C 16,1 C 94 % 15 lf 1015,1 hPa 0,0 l/m 0 min 0 min 5 W/m 6,3 km/h (2 Bft) 97,87 %
28.07.2016 05:34 17,8 C 17,2 C 16,1 C 94 % 15 lf 1015,0 hPa 0,0 l/m 0 min 0 min 5 W/m 6,3 km/h (2 Bft) 97,87 %
28.07.2016 05:36 17,8 C 17,2 C 16,1 C 94 % 15 lf 1014,9 hPa 0,0 l/m 0 min 0 min 5 W/m 8,4 km/h (2 Bft) 97,83 %
28.07.2016 05:38 17,8 C 17,2 C 16,1 C 94 % 15 lf 1014,9 hPa 0,0 l/m 0 min 0 min 5 W/m 4,2 km/h (1 Bft) 97,87 %
28.07.2016 05:40 17,8 C 17,2 C 16,1 C 94 % 15 lf 1014,9 hPa 0,0 l/m 0 min 0 min 5 W/m 8,4 km/h (2 Bft) 100,00 %
28.07.2016 05:42 17,8 C 17,2 C 16,1 C 94 % 15 lf 1014,9 hPa 0,0 l/m 0 min 0 min 5 W/m 4,2 km/h (1 Bft) 100,00 %
28.07.2016 05:44 17,8 C 17,2 C 16,1 C 94 % 15 lf 1014,9 hPa 0,0 l/m 0 min 0 min 5 W/m 6,3 km/h (2 Bft) 95,74 %
28.07.2016 05:46 17,8 C 17,2 C 16,1 C 94 % 15 lf 1014,9 hPa 0,0 l/m 0 min 0 min 6 W/m 6,3 km/h (2 Bft) 100,00 %
28.07.2016 05:48 17,8 C 17,2 C 16,1 C 95 % 15 lf 1014,9 hPa 0,0 l/m 0 min 0 min 6 W/m 10,5 km/h (2 Bft) 97,83 %
28.07.2016 05:50 17,8 C 17,2 C 16,1 C 95 % 15 lf 1014,9 hPa 0,0 l/m 0 min 0 min 7 W/m 8,4 km/h (2 Bft) 97,87 %
28.07.2016 05:52 17,7 C 17,2 C 16,1 C 95 % 15 lf 1014,9 hPa 0,0 l/m 0 min 0 min 7 W/m 6,3 km/h (2 Bft) 93,62 %
28.07.2016 05:54 17,7 C 17,2 C 16,1 C 95 % 15 lf 1014,8 hPa 0,0 l/m 0 min 0 min 7 W/m 4,2 km/h (1 Bft) 97,87 %
28.07.2016 05:56 17,7 C 17,2 C 16,1 C 95 % 15 lf 1014,9 hPa 0,0 l/m 0 min 0 min 7 W/m 10,5 km/h (2 Bft) 93,62 %
28.07.2016 05:58 17,7 C 17,2 C 16,1 C 95 % 15 lf 1014,9 hPa 0,0 l/m 0 min 0 min 7 W/m 10,5 km/h (2 Bft) 100,00 %
28.07.2016 06:00 17,7 C 17,2 C 16,1 C 95 % 15 lf 1014,8 hPa 0,0 l/m 0 min 0 min 7 W/m 10,5 km/h (2 Bft) 93,48 %
28.07.2016 06:02 17,7 C 17,2 C 16,1 C 95 % 15 lf 1014,8 hPa 0,0 l/m 0 min 0 min 7 W/m 10,5 km/h (2 Bft) 97,87 %
28.07.2016 06:04 17,7 C 17,2 C 16,1 C 95 % 15 lf 1014,8 hPa 0,0 l/m 0 min 0 min 7 W/m 8,4 km/h (2 Bft) 95,74 %
28.07.2016 06:06 17,7 C 17,2 C 16,1 C 95 % 15 lf 1014,8 hPa 0,0 l/m 0 min 0 min 7 W/m 6,3 km/h (2 Bft) 97,87 %
28.07.2016 06:08 17,7 C 17,2 C 16,1 C 95 % 15 lf 1014,7 hPa 0,0 l/m 0 min 0 min 9 W/m 8,4 km/h (2 Bft) 93,62 %
28.07.2016 06:10 17,7 C 17,2 C 16,1 C 95 % 15 lf 1014,7 hPa 0,0 l/m 0 min 0 min 10 W/m 12,6 km/h (3 Bft) 95,74 %
28.07.2016 06:12 17,7 C 17,2 C 16,1 C 95 % 15 lf 1014,7 hPa 0,0 l/m 0 min 0 min 11 W/m 8,4 km/h (2 Bft) 95,65 %
28.07.2016 06:14 17,7 C 17,2 C 16,1 C 95 % 15 lf 1014,8 hPa 0,0 l/m 0 min 0 min 9 W/m 10,5 km/h (2 Bft) 93,62 %
28.07.2016 06:16 17,7 C 17,2 C 16,1 C 95 % 15 lf 1014,9 hPa 0,0 l/m 0 min 0 min 8 W/m 10,5 km/h (2 Bft) 87,23 %
28.07.2016 06:18 17,7 C 17,2 C 16,1 C 95 % 15 lf 1014,9 hPa 0,0 l/m 0 min 0 min 7 W/m 10,5 km/h (2 Bft) 91,49 %
28.07.2016 06:20 17,7 C 17,2 C 16,1 C 95 % 15 lf 1014,8 hPa 0,0 l/m 0 min 0 min 10 W/m 8,4 km/h (2 Bft) 95,74 %
28.07.2016 06:22 17,7 C 17,2 C 16,1 C 95 % 15 lf 1014,8 hPa 0,0 l/m 0 min 0 min 12 W/m 8,4 km/h (2 Bft) 91,49 %
28.07.2016 06:24 17,6 C 17,2 C 16,1 C 95 % 15 lf 1014,8 hPa 0,0 l/m 0 min 0 min 11 W/m 10,5 km/h (2 Bft) 95,74 %
28.07.2016 06:26 17,6 C 17,2 C 16,1 C 95 % 15 lf 1014,7 hPa 0,0 l/m 0 min 0 min 13 W/m 6,3 km/h (2 Bft) 95,65 %
28.07.2016 06:28 17,6 C 17,2 C 16,1 C 95 % 15 lf 1014,6 hPa 0,0 l/m 0 min 0 min 15 W/m 6,3 km/h (2 Bft) 91,49 %
28.07.2016 06:30 17,6 C 17,2 C 16,1 C 95 % 15 lf 1014,6 hPa 0,0 l/m 0 min 0 min 18 W/m 6,3 km/h (2 Bft) 91,49 %
28.07.2016 06:32 17,6 C 17,2 C 16,1 C 95 % 15 lf 1014,6 hPa 0,0 l/m 0 min 0 min 18 W/m 8,4 km/h (2 Bft) 93,62 %
28.07.2016 06:34 17,6 C 17,2 C 16,1 C 95 % 15 lf 1014,7 hPa 0,0 l/m 0 min 0 min 19 W/m 10,5 km/h (2 Bft) 93,48 %
28.07.2016 06:36 17,6 C 17,2 C 16,1 C 95 % 15 lf 1014,6 hPa 0,0 l/m 0 min 0 min 18 W/m 6,3 km/h (2 Bft) 93,62 %
28.07.2016 06:38 17,6 C 17,2 C 16,1 C 95 % 15 lf 1014,7 hPa 0,0 l/m 0 min 0 min 15 W/m 10,5 km/h (2 Bft) 97,87 %
28.07.2016 06:40 17,6 C 17,2 C 16,1 C 95 % 15 lf 1014,7 hPa 0,0 l/m 0 min 0 min 13 W/m 6,3 km/h (2 Bft) 93,62 %
28.07.2016 06:42 17,6 C 17,2 C 16,1 C 95 % 15 lf 1014,7 hPa 0,0 l/m 0 min 0 min 12 W/m 8,4 km/h (2 Bft) 97,87 %
28.07.2016 06:44 17,6 C 17,2 C 16,1 C 96 % 15 lf 1014,6 hPa 0,0 l/m 0 min 0 min 13 W/m 8,4 km/h (2 Bft) 93,62 %
28.07.2016 06:46 17,6 C 17,2 C 16,1 C 96 % 15 lf 1014,6 hPa 0,0 l/m 0 min 0 min 15 W/m 6,3 km/h (2 Bft) 97,83 %
28.07.2016 06:48 17,6 C 17,2 C 16,1 C 96 % 15 lf 1014,6 hPa 0,0 l/m 0 min 0 min 17 W/m 8,4 km/h (2 Bft) 95,74 %
28.07.2016 06:50 17,6 C 17,2 C 16,1 C 96 % 15 lf 1014,6 hPa 0,0 l/m 0 min 0 min 18 W/m 6,3 km/h (2 Bft) 93,62 %
28.07.2016 06:52 17,6 C 17,2 C 16,1 C 96 % 15 lf 1014,6 hPa 0,0 l/m 0 min 0 min 19 W/m 6,3 km/h (2 Bft) 95,74 %
28.07.2016 06:54 17,6 C 17,2 C 16,1 C 96 % 15 lf 1014,6 hPa 0,0 l/m 0 min 0 min 23 W/m 4,2 km/h (1 Bft) 93,62 %
28.07.2016 06:56 17,6 C 17,2 C 16,1 C 96 % 15 lf 1014,6 hPa 0,0 l/m 0 min 0 min 25 W/m 8,4 km/h (2 Bft) 95,74 %
28.07.2016 06:58 17,6 C 17,2 C 16,1 C 96 % 15 lf 1014,7 hPa 0,0 l/m 0 min 0 min 22 W/m 10,5 km/h (2 Bft) 93,48 %
28.07.2016 07:00 17,6 C 17,2 C 16,1 C 96 % 15 lf 1014,7 hPa 0,0 l/m 0 min 0 min 22 W/m 8,4 km/h (2 Bft) 93,62 %
28.07.2016 07:02 17,6 C 17,2 C 16,1 C 96 % 15 lf 1014,6 hPa 0,0 l/m 0 min 0 min 24 W/m 8,4 km/h (2 Bft) 95,74 %
28.07.2016 07:04 17,6 C 17,2 C 16,1 C 96 % 15 lf 1014,5 hPa 0,0 l/m 0 min 0 min 26 W/m 6,3 km/h (2 Bft) 95,74 %
28.07.2016 07:06 17,6 C 17,2 C 16,1 C 96 % 15 lf 1014,6 hPa 0,0 l/m 0 min 0 min 28 W/m 4,2 km/h (1 Bft) 95,74 %
28.07.2016 07:08 17,6 C 17,2 C 16,1 C 96 % 15 lf 1014,6 hPa 0,0 l/m 0 min 0 min 30 W/m 6,3 km/h (2 Bft) 95,74 %
28.07.2016 07:10 17,6 C 17,2 C 16,1 C 96 % 15 lf 1014,6 hPa 0,0 l/m 0 min 0 min 32 W/m 6,3 km/h (2 Bft) 95,65 %
28.07.2016 07:12 17,6 C 17,2 C 16,1 C 96 % 15 lf 1014,6 hPa 0,0 l/m 0 min 0 min 33 W/m 4,2 km/h (1 Bft) 97,87 %
28.07.2016 07:14 17,6 C 17,2 C 16,1 C 96 % 15 lf 1014,6 hPa 0,0 l/m 0 min 0 min 32 W/m 4,2 km/h (1 Bft) 97,87 %
28.07.2016 07:16 17,6 C 17,2 C 16,1 C 96 % 15 lf 1014,5 hPa 0,0 l/m 0 min 0 min 32 W/m 4,2 km/h (1 Bft) 95,74 %
28.07.2016 07:18 17,6 C 17,2 C 16,1 C 96 % 15 lf 1014,5 hPa 0,0 l/m 0 min 0 min 32 W/m 4,2 km/h (1 Bft) 95,74 %
28.07.2016 07:20 17,6 C 17,2 C 16,1 C 96 % 15 lf 1014,5 hPa 0,0 l/m 0 min 0 min 34 W/m 4,2 km/h (1 Bft) 97,87 %
28.07.2016 07:22 17,6 C 17,2 C 16,1 C 96 % 15 lf 1014,6 hPa 0,0 l/m 0 min 0 min 34 W/m 4,2 km/h (1 Bft) 97,83 %
28.07.2016 07:24 17,6 C 17,2 C 16,1 C 96 % 15 lf 1014,5 hPa 0,0 l/m 0 min 0 min 32 W/m 4,2 km/h (1 Bft) 95,74 %
28.07.2016 07:26 17,6 C 17,2 C 16,1 C 96 % 15 lf 1014,5 hPa 0,0 l/m 0 min 0 min 32 W/m 8,4 km/h (2 Bft) 95,74 %
28.07.2016 07:28 17,6 C 17,2 C 16,1 C 96 % 15 lf 1014,6 hPa 0,0 l/m 0 min 0 min 32 W/m 6,3 km/h (2 Bft) 93,62 %
28.07.2016 07:30 17,6 C 17,2 C 16,1 C 96 % 15 lf 1014,6 hPa 0,0 l/m 0 min 0 min 33 W/m 6,3 km/h (2 Bft) 97,87 %
28.07.2016 07:32 17,7 C 17,2 C 16,1 C 96 % 15 lf 1014,6 hPa 0,0 l/m 0 min 0 min 34 W/m 4,2 km/h (1 Bft) 97,87 %
28.07.2016 07:34 17,7 C 17,2 C 16,1 C 96 % 15 lf 1014,6 hPa 0,0 l/m 0 min 0 min 34 W/m 6,3 km/h (2 Bft) 93,48 %
28.07.2016 07:36 17,7 C 17,2 C 16,1 C 96 % 15 lf 1014,6 hPa 0,0 l/m 0 min 0 min 34 W/m 8,4 km/h (2 Bft) 97,87 %
28.07.2016 07:38 17,7 C 17,2 C 16,1 C 96 % 15 lf 1014,6 hPa 0,0 l/m 0 min 0 min 36 W/m 12,6 km/h (3 Bft) 97,87 %
28.07.2016 07:40 17,7 C 17,2 C 16,1 C 96 % 15 lf 1014,5 hPa 0,0 l/m 0 min 2 min 38 W/m 10,5 km/h (2 Bft) 100,00 %
28.07.2016 07:42 17,7 C 17,2 C 16,1 C 96 % 15 lf 1014,6 hPa 0,0 l/m 0 min 2 min 40 W/m 8,4 km/h (2 Bft) 100,00 %
28.07.2016 07:44 17,7 C 17,2 C 16,1 C 96 % 15 lf 1014,5 hPa 0,0 l/m 0 min 2 min 43 W/m 14,6 km/h (3 Bft) 93,62 %
28.07.2016 07:46 17,7 C 17,2 C 16,1 C 96 % 15 lf 1014,5 hPa 0,2 l/m 0 min 2 min 49 W/m 14,6 km/h (3 Bft) 97,83 %
28.07.2016 07:48 17,7 C 17,2 C 16,1 C 96 % 15 lf 1014,5 hPa 0,0 l/m 0 min 2 min 55 W/m 12,6 km/h (3 Bft) 95,74 %
28.07.2016 07:50 17,7 C 17,2 C 16,1 C 96 % 15 lf 1014,5 hPa 0,0 l/m 0 min 2 min 62 W/m 12,6 km/h (3 Bft) 95,74 %
28.07.2016 07:52 17,7 C 17,2 C 16,1 C 96 % 15 lf 1014,5 hPa 0,2 l/m 0 min 2 min 68 W/m 10,5 km/h (2 Bft) 93,62 %
28.07.2016 07:54 17,7 C 17,2 C 16,1 C 96 % 15 lf 1014,5 hPa 0,0 l/m 0 min 2 min 70 W/m 10,5 km/h (2 Bft) 93,62 %
28.07.2016 07:56 17,7 C 17,2 C 16,7 C 96 % 15 lf 1014,5 hPa 0,0 l/m 0 min 2 min 75 W/m 16,7 km/h (3 Bft) 97,87 %
28.07.2016 07:58 17,7 C 17,2 C 16,1 C 96 % 15 lf 1014,5 hPa 0,2 l/m 0 min 2 min 79 W/m 14,6 km/h (3 Bft) 97,83 %
28.07.2016 08:00 17,7 C 17,2 C 16,1 C 96 % 15 lf 1014,5 hPa 0,0 l/m 0 min 2 min 77 W/m 14,6 km/h (3 Bft) 91,49 %
28.07.2016 08:02 17,7 C 17,2 C 16,1 C 96 % 15 lf 1014,5 hPa 0,0 l/m 0 min 2 min 76 W/m 12,6 km/h (3 Bft) 87,23 %
28.07.2016 08:04 17,7 C 17,2 C 16,1 C 96 % 15 lf 1014,5 hPa 0,0 l/m 0 min 0 min 76 W/m 14,6 km/h (3 Bft) 95,74 %
28.07.2016 08:06 17,7 C 17,2 C 16,1 C 96 % 15 lf 1014,5 hPa 0,0 l/m 0 min 0 min 78 W/m 14,6 km/h (3 Bft) 93,62 %
28.07.2016 08:08 17,6 C 17,2 C 16,7 C 96 % 15 lf 1014,5 hPa 0,0 l/m 0 min 2 min 81 W/m 12,6 km/h (3 Bft) 95,74 %
28.07.2016 08:10 17,6 C 17,2 C 16,7 C 96 % 15 lf 1014,5 hPa 0,0 l/m 0 min 2 min 82 W/m 10,5 km/h (2 Bft) 95,65 %
28.07.2016 08:12 17,7 C 17,2 C 16,7 C 97 % 15 lf 1014,5 hPa 0,0 l/m 0 min 2 min 78 W/m 12,6 km/h (3 Bft) 95,74 %
28.07.2016 08:14 17,7 C 17,2 C 16,7 C 97 % 15 lf 1014,5 hPa 0,0 l/m 0 min 2 min 75 W/m 12,6 km/h (3 Bft) 95,74 %
28.07.2016 08:16 17,7 C 17,2 C 16,7 C 97 % 15 lf 1014,5 hPa 0,0 l/m 0 min 2 min 72 W/m 12,6 km/h (3 Bft) 95,74 %
28.07.2016 08:18 17,7 C 17,2 C 16,1 C 97 % 15 lf 1014,5 hPa 0,0 l/m 0 min 0 min 70 W/m 8,4 km/h (2 Bft) 93,62 %
28.07.2016 08:20 17,7 C 17,2 C 16,1 C 97 % 15 lf 1014,5 hPa 0,0 l/m 0 min 0 min 68 W/m 10,5 km/h (2 Bft) 93,48 %
28.07.2016 08:22 17,7 C 17,2 C 16,1 C 97 % 15 lf 1014,5 hPa 0,0 l/m 0 min 0 min 65 W/m 10,5 km/h (2 Bft) 95,74 %
28.07.2016 08:24 17,7 C 17,2 C 16,1 C 97 % 15 lf 1014,5 hPa 0,0 l/m 0 min 0 min 61 W/m 12,6 km/h (3 Bft) 93,62 %
28.07.2016 08:26 17,7 C 17,2 C 16,1 C 97 % 15 lf 1014,5 hPa 0,0 l/m 0 min 0 min 60 W/m 10,5 km/h (2 Bft) 93,62 %
28.07.2016 08:28 17,6 C 17,2 C 16,1 C 97 % 15 lf 1014,5 hPa 0,0 l/m 0 min 0 min 62 W/m 8,4 km/h (2 Bft) 95,74 %
28.07.2016 08:30 17,6 C 17,2 C 16,1 C 96 % 15 lf 1014,5 hPa 0,0 l/m 0 min 0 min 68 W/m 6,3 km/h (2 Bft) 95,74 %
28.07.2016 08:32 17,6 C 17,2 C 16,7 C 96 % 15 lf 1014,4 hPa 0,0 l/m 0 min 0 min 79 W/m 8,4 km/h (2 Bft) 97,83 %
28.07.2016 08:34 17,6 C 17,2 C 16,7 C 96 % 15 lf 1014,5 hPa 0,0 l/m 0 min 0 min 86 W/m 8,4 km/h (2 Bft) 100,00 %
28.07.2016 08:36 17,6 C 17,2 C 16,7 C 96 % 15 lf 1014,5 hPa 0,0 l/m 0 min 0 min 87 W/m 8,4 km/h (2 Bft) 100,00 %
28.07.2016 08:38 17,6 C 17,2 C 16,7 C 96 % 15 lf 1014,5 hPa 0,0 l/m 0 min 0 min 83 W/m 14,6 km/h (3 Bft) 100,00 %
28.07.2016 08:40 17,6 C 17,2 C 16,7 C 96 % 15 lf 1014,4 hPa 0,0 l/m 0 min 2 min 80 W/m 14,6 km/h (3 Bft) 97,87 %
28.07.2016 08:42 17,6 C 17,2 C 16,7 C 96 % 15 lf 1014,4 hPa 0,0 l/m 0 min 2 min 71 W/m 8,4 km/h (2 Bft) 95,74 %
28.07.2016 08:44 17,6 C 17,2 C 16,7 C 97 % 15 lf 1014,5 hPa 0,0 l/m 0 min 0 min 67 W/m 10,5 km/h (2 Bft) 100,00 %
28.07.2016 08:46 17,7 C 17,8 C 16,7 C 97 % 15 lf 1014,4 hPa 0,0 l/m 0 min 0 min 74 W/m 8,4 km/h (2 Bft) 95,74 %
28.07.2016 08:48 17,7 C 17,8 C 16,7 C 97 % 15 lf 1014,5 hPa 0,0 l/m 0 min 0 min 85 W/m 4,2 km/h (1 Bft) 97,62 %
28.07.2016 08:50 17,7 C 17,8 C 16,7 C 97 % 15 lf 1014,5 hPa 0,0 l/m 0 min 0 min 81 W/m 10,5 km/h (2 Bft) 100,00 %
28.07.2016 08:52 17,7 C 17,8 C 16,7 C 97 % 15 lf 1014,5 hPa 0,0 l/m 0 min 0 min 75 W/m 6,3 km/h (2 Bft) 100,00 %
28.07.2016 08:54 17,7 C 17,2 C 16,7 C 97 % 15 lf 1014,5 hPa 0,0 l/m 0 min 0 min 72 W/m 8,4 km/h (2 Bft) 100,00 %
28.07.2016 08:56 17,7 C 17,2 C 16,7 C 97 % 15 lf 1014,5 hPa 0,0 l/m 0 min 0 min 67 W/m 10,5 km/h (2 Bft) 97,92 %
28.07.2016 08:58 17,7 C 17,2 C 16,7 C 97 % 15 lf 1014,4 hPa 0,0 l/m 0 min 0 min 79 W/m 12,6 km/h (3 Bft) 97,87 %
28.07.2016 09:00 17,7 C 17,2 C 16,7 C 97 % 15 lf 1014,4 hPa 0,0 l/m 0 min 0 min 79 W/m 14,6 km/h (3 Bft) 97,87 %
28.07.2016 09:02 17,7 C 17,2 C 16,7 C 97 % 15 lf 1014,4 hPa 0,0 l/m 0 min 0 min 87 W/m 18,8 km/h (3 Bft) 100,00 %
28.07.2016 09:04 17,7 C 17,8 C 16,7 C 97 % 15 lf 1014,4 hPa 0,0 l/m 0 min 0 min 111 W/m 12,6 km/h (3 Bft) 100,00 %
28.07.2016 09:06 17,7 C 17,8 C 16,7 C 97 % 15 lf 1014,4 hPa 0,0 l/m 0 min 0 min 118 W/m 16,7 km/h (3 Bft) 97,87 %
28.07.2016 09:08 17,7 C 17,8 C 16,7 C 97 % 15 lf 1014,5 hPa 0,0 l/m 0 min 0 min 113 W/m 12,6 km/h (3 Bft) 100,00 %
28.07.2016 09:10 17,7 C 17,8 C 16,7 C 97 % 15 lf 1014,4 hPa 0,0 l/m 0 min 0 min 104 W/m 8,4 km/h (2 Bft) 95,92 %
28.07.2016 09:12 17,7 C 17,8 C 17,2 C 97 % 15 lf 1014,4 hPa 0,0 l/m 0 min 0 min 100 W/m 8,4 km/h (2 Bft) 97,87 %
28.07.2016 09:14 17,7 C 17,8 C 16,7 C 97 % 15 lf 1014,4 hPa 0,0 l/m 0 min 0 min 94 W/m 8,4 km/h (2 Bft) 100,00 %
28.07.2016 09:16 17,8 C 17,8 C 16,7 C 97 % 15 lf 1014,4 hPa 0,0 l/m 0 min 0 min 90 W/m 8,4 km/h (2 Bft) 100,00 %
28.07.2016 09:18 17,8 C 17,8 C 16,7 C 97 % 15 lf 1014,5 hPa 0,0 l/m 0 min 0 min 85 W/m 10,5 km/h (2 Bft) 100,00 %
28.07.2016 09:20 17,8 C 17,8 C 16,7 C 97 % 15 lf 1014,5 hPa 0,0 l/m 0 min 0 min 90 W/m 10,5 km/h (2 Bft) 97,92 %
28.07.2016 09:22 17,8 C 17,8 C 16,7 C 97 % 15 lf 1014,5 hPa 0,0 l/m 0 min 0 min 96 W/m 14,6 km/h (3 Bft) 100,00 %
28.07.2016 09:24 17,8 C 17,8 C 17,2 C 97 % 15 lf 1014,5 hPa 0,0 l/m 0 min 0 min 118 W/m 10,5 km/h (2 Bft) 100,00 %
28.07.2016 09:26 17,8 C 18,3 C 17,8 C 97 % 15 lf 1014,5 hPa 0,0 l/m 0 min 0 min 160 W/m 6,3 km/h (2 Bft) 97,87 %
28.07.2016 09:28 17,8 C 18,3 C 17,8 C 97 % 15 lf 1014,5 hPa 0,0 l/m 0 min 0 min 178 W/m 10,5 km/h (2 Bft) 97,87 %
28.07.2016 09:30 17,8 C 18,3 C 17,8 C 97 % 15 lf 1014,5 hPa 0,0 l/m 0 min 0 min 160 W/m 10,5 km/h (2 Bft) 95,65 %
28.07.2016 09:32 17,8 C 18,3 C 17,8 C 97 % 15 lf 1014,5 hPa 0,0 l/m 0 min 0 min 136 W/m 10,5 km/h (2 Bft) 95,74 %
28.07.2016 09:34 17,8 C 18,3 C 17,8 C 97 % 15 lf 1014,5 hPa 0,0 l/m 0 min 0 min 127 W/m 6,3 km/h (2 Bft) 97,62 %
28.07.2016 09:36 17,9 C 18,3 C 17,8 C 97 % 14 lf 1014,5 hPa 0,0 l/m 0 min 0 min 128 W/m 8,4 km/h (2 Bft) 98,00 %
28.07.2016 09:38 17,9 C 18,3 C 17,2 C 97 % 14 lf 1014,5 hPa 0,0 l/m 0 min 2 min 101 W/m 8,4 km/h (2 Bft) 100,00 %
28.07.2016 09:40 17,9 C 18,3 C 17,2 C 97 % 13 lf 1014,4 hPa 0,0 l/m 0 min 2 min 95 W/m 12,6 km/h (3 Bft) 97,87 %
28.07.2016 09:42 17,9 C 17,8 C 17,2 C 97 % 13 lf 1014,5 hPa 0,0 l/m 0 min 2 min 93 W/m 14,6 km/h (3 Bft) 97,83 %
28.07.2016 09:44 17,9 C 17,8 C 17,2 C 97 % 15 lf 1014,5 hPa 0,0 l/m 0 min 2 min 87 W/m 10,5 km/h (2 Bft) 95,24 %
28.07.2016 09:46 18,0 C 17,8 C 17,2 C 97 % 15 lf 1014,5 hPa 0,0 l/m 0 min 2 min 79 W/m 10,5 km/h (2 Bft) 92,00 %
28.07.2016 09:48 18,0 C 18,3 C 17,2 C 97 % 15 lf 1014,5 hPa 0,0 l/m 0 min 2 min 102 W/m 6,3 km/h (2 Bft) 95,92 %
28.07.2016 09:50 18,0 C 18,3 C 17,2 C 97 % 15 lf 1014,5 hPa 0,0 l/m 0 min 2 min 138 W/m 8,4 km/h (2 Bft) 91,49 %
28.07.2016 09:52 18,1 C 18,3 C 17,2 C 97 % 15 lf 1014,5 hPa 0,0 l/m 0 min 2 min 138 W/m 8,4 km/h (2 Bft) 93,62 %
28.07.2016 09:54 18,1 C 17,8 C 17,2 C 97 % 15 lf 1014,5 hPa 0,0 l/m 0 min 2 min 118 W/m 14,6 km/h (3 Bft) 95,65 %
28.07.2016 09:56 18,1 C 17,8 C 17,2 C 97 % 15 lf 1014,5 hPa 0,0 l/m 0 min 2 min 105 W/m 14,6 km/h (3 Bft) 93,62 %
28.07.2016 09:58 18,1 C 17,8 C 17,2 C 97 % 15 lf 1014,5 hPa 0,0 l/m 0 min 0 min 100 W/m 12,6 km/h (3 Bft) 91,49 %
28.07.2016 10:00 18,1 C 17,8 C 17,2 C 97 % 15 lf 1014,5 hPa 0,0 l/m 0 min 0 min 118 W/m 14,6 km/h (3 Bft) 93,62 %
28.07.2016 10:02 18,1 C 17,8 C 16,7 C 97 % 15 lf 1014,5 hPa 0,0 l/m 0 min 0 min 112 W/m 14,6 km/h (3 Bft) 92,86 %
28.07.2016 10:04 18,1 C 17,8 C 16,7 C 97 % 15 lf 1014,5 hPa 0,0 l/m 0 min 2 min 108 W/m 14,6 km/h (3 Bft) 93,02 %
28.07.2016 10:06 18,1 C 17,8 C 17,2 C 97 % 15 lf 1014,6 hPa 0,0 l/m 0 min 2 min 122 W/m 16,7 km/h (3 Bft) 92,45 %
28.07.2016 10:08 18,1 C 17,8 C 16,7 C 97 % 15 lf 1014,6 hPa 0,2 l/m 0 min 2 min 117 W/m 14,6 km/h (3 Bft) 91,49 %
28.07.2016 10:10 18,1 C 17,8 C 16,7 C 97 % 15 lf 1014,6 hPa 0,2 l/m 0 min 2 min 121 W/m 16,7 km/h (3 Bft) 93,62 %
28.07.2016 10:12 18,1 C 17,2 C 16,7 C 97 % 15 lf 1014,5 hPa 0,2 l/m 0 min 2 min 116 W/m 20,9 km/h (4 Bft) 93,62 %
28.07.2016 10:14 18,1 C 17,8 C 16,7 C 97 % 15 lf 1014,6 hPa 0,6 l/m 0 min 2 min 106 W/m 12,6 km/h (3 Bft) 94,00 %
28.07.2016 10:16 18,1 C 17,8 C 16,7 C 97 % 15 lf 1014,6 hPa 0,0 l/m 0 min 2 min 117 W/m 16,7 km/h (3 Bft) 93,75 %
28.07.2016 10:18 18,1 C 17,8 C 16,7 C 97 % 15 lf 1014,6 hPa 0,4 l/m 0 min 2 min 133 W/m 23,0 km/h (4 Bft) 93,62 %
28.07.2016 10:20 18,1 C 17,8 C 16,7 C 97 % 15 lf 1014,5 hPa 0,0 l/m 0 min 2 min 149 W/m 12,6 km/h (3 Bft) 93,62 %
28.07.2016 10:22 18,1 C 17,8 C 17,2 C 97 % 15 lf 1014,6 hPa 0,0 l/m 0 min 2 min 161 W/m 8,4 km/h (2 Bft) 91,49 %
28.07.2016 10:24 18,1 C 17,8 C 17,2 C 97 % 15 lf 1014,5 hPa 0,0 l/m 0 min 0 min 175 W/m 14,6 km/h (3 Bft) 85,11 %
28.07.2016 10:26 18,1 C 17,8 C 17,2 C 97 % 15 lf 1014,6 hPa 0,0 l/m 0 min 0 min 190 W/m 14,6 km/h (3 Bft) 89,36 %
28.07.2016 10:28 18,2 C 18,3 C 17,2 C 97 % 15 lf 1014,6 hPa 0,0 l/m 0 min 0 min 200 W/m 8,4 km/h (2 Bft) 93,48 %
28.07.2016 10:30 18,2 C 17,8 C 17,2 C 97 % 15 lf 1014,6 hPa 0,0 l/m 0 min 0 min 193 W/m 16,7 km/h (3 Bft) 94,44 %
28.07.2016 10:32 18,2 C 17,8 C 17,2 C 97 % 15 lf 1014,7 hPa 0,0 l/m 0 min 0 min 200 W/m 16,7 km/h (3 Bft) 91,30 %
28.07.2016 10:34 18,2 C 17,8 C 17,2 C 97 % 15 lf 1014,5 hPa 0,0 l/m 0 min 0 min 183 W/m 14,6 km/h (3 Bft) 94,44 %
28.07.2016 10:36 18,2 C 18,3 C 17,8 C 97 % 15 lf 1014,5 hPa 0,0 l/m 0 min 0 min 186 W/m 8,4 km/h (2 Bft) 96,00 %
28.07.2016 10:38 18,2 C 18,3 C 17,8 C 97 % 15 lf 1014,5 hPa 0,0 l/m 0 min 0 min 199 W/m 10,5 km/h (2 Bft) 93,88 %
28.07.2016 10:40 18,2 C 18,9 C 17,8 C 97 % 15 lf 1014,5 hPa 0,0 l/m 0 min 0 min 220 W/m 12,6 km/h (3 Bft) 93,48 %
28.07.2016 10:42 18,2 C 18,3 C 17,8 C 97 % 15 lf 1014,5 hPa 0,0 l/m 0 min 0 min 221 W/m 12,6 km/h (3 Bft) 95,74 %
28.07.2016 10:44 18,2 C 18,9 C 18,3 C 97 % 15 lf 1014,4 hPa 0,0 l/m 0 min 0 min 207 W/m 10,5 km/h (2 Bft) 97,87 %
28.07.2016 10:46 18,2 C 18,9 C 18,3 C 97 % 15 lf 1014,5 hPa 0,0 l/m 0 min 0 min 204 W/m 8,4 km/h (2 Bft) 97,14 %
28.07.2016 10:48 18,3 C 18,3 C 18,3 C 97 % 15 lf 1014,4 hPa 0,0 l/m 0 min 0 min 184 W/m 14,6 km/h (3 Bft) 97,87 %
28.07.2016 10:50 18,3 C 18,9 C 18,3 C 97 % 15 lf 1014,5 hPa 0,0 l/m 0 min 0 min 188 W/m 12,6 km/h (3 Bft) 97,87 %
28.07.2016 10:52 18,3 C 18,9 C 18,3 C 97 % 15 lf 1014,4 hPa 0,0 l/m 0 min 0 min 195 W/m 14,6 km/h (3 Bft) 93,62 %
28.07.2016 10:54 18,4 C 18,9 C 18,3 C 97 % 15 lf 1014,4 hPa 0,0 l/m 0 min 0 min 218 W/m 14,6 km/h (3 Bft) 95,74 %
28.07.2016 10:56 18,4 C 18,9 C 18,3 C 97 % 15 lf 1014,4 hPa 0,0 l/m 0 min 0 min 203 W/m 10,5 km/h (2 Bft) 97,83 %
28.07.2016 10:58 18,4 C 18,9 C 18,3 C 97 % 15 lf 1014,5 hPa 0,0 l/m 0 min 0 min 154 W/m 10,5 km/h (2 Bft) 87,23 %
28.07.2016 11:00 18,4 C 18,9 C 18,3 C 97 % 15 lf 1014,5 hPa 0,0 l/m 0 min 0 min 179 W/m 10,5 km/h (2 Bft) 95,74 %
28.07.2016 11:02 18,5 C 19,4 C 18,9 C 97 % 15 lf 1014,5 hPa 0,0 l/m 0 min 0 min 239 W/m 12,6 km/h (3 Bft) 95,74 %
28.07.2016 11:04 18,6 C 19,4 C 18,9 C 97 % 15 lf 1014,5 hPa 0,0 l/m 0 min 0 min 278 W/m 10,5 km/h (2 Bft) 97,87 %
28.07.2016 11:06 18,6 C 20,0 C 19,4 C 97 % 15 lf 1014,6 hPa 0,0 l/m 0 min 0 min 329 W/m 10,5 km/h (2 Bft) 97,83 %
28.07.2016 11:08 18,7 C 21,7 C 21,1 C 97 % 15 lf 1014,5 hPa 0,0 l/m 2 min 0 min 469 W/m 12,6 km/h (3 Bft) 95,74 %
28.07.2016 11:10 18,8 C 23,3 C 22,2 C 97 % 15 lf 1014,4 hPa 0,0 l/m 2 min 0 min 615 W/m 10,5 km/h (2 Bft) 97,87 %
28.07.2016 11:12 19,0 C 23,3 C 23,3 C 97 % 15 lf 1014,4 hPa 0,0 l/m 2 min 0 min 779 W/m 10,5 km/h (2 Bft) 96,30 %
28.07.2016 11:14 19,2 C 23,3 C 23,3 C 97 % 15 lf 1014,4 hPa 0,0 l/m 2 min 0 min 735 W/m 14,6 km/h (3 Bft) 95,74 %
28.07.2016 11:16 19,3 C 22,8 C 22,2 C 98 % 13 lf 1014,4 hPa 0,0 l/m 0 min 0 min 351 W/m 10,5 km/h (2 Bft) 95,65 %
28.07.2016 11:18 19,4 C 22,2 C 21,1 C 98 % 12 lf 1014,5 hPa 0,0 l/m 0 min 0 min 248 W/m 12,6 km/h (3 Bft) 97,87 %
28.07.2016 11:20 19,4 C 21,7 C 21,1 C 97 % 10 lf 1014,4 hPa 0,0 l/m 0 min 0 min 270 W/m 12,6 km/h (3 Bft) 100,00 %
28.07.2016 11:22 19,4 C 21,1 C 20,6 C 97 % 9 lf 1014,4 hPa 0,0 l/m 0 min 0 min 271 W/m 16,7 km/h (3 Bft) 100,00 %
28.07.2016 11:24 19,4 C 21,1 C 20,6 C 97 % 7 lf 1014,4 hPa 0,0 l/m 0 min 0 min 301 W/m 16,7 km/h (3 Bft) 97,87 %
28.07.2016 11:26 19,4 C 20,0 C 20,6 C 97 % 4 lf 1014,4 hPa 0,0 l/m 0 min 0 min 254 W/m 18,8 km/h (3 Bft) 97,87 %
28.07.2016 11:28 19,4 C 20,6 C 20,0 C 97 % 3 lf 1014,4 hPa 0,0 l/m 0 min 0 min 276 W/m 20,9 km/h (4 Bft) 100,00 %
28.07.2016 11:30 19,4 C 20,6 C 20,6 C 97 % 2 lf 1014,5 hPa 0,0 l/m 0 min 0 min 318 W/m 16,7 km/h (3 Bft) 100,00 %
28.07.2016 11:32 19,5 C 20,0 C 20,6 C 97 % 2 lf 1014,5 hPa 0,0 l/m 0 min 0 min 297 W/m 25,1 km/h (4 Bft) 100,00 %
28.07.2016 11:34 19,5 C 20,6 C 20,6 C 96 % 1 lf 1014,5 hPa 0,0 l/m 0 min 0 min 315 W/m 14,6 km/h (3 Bft) 95,74 %
28.07.2016 11:36 19,6 C 21,1 C 21,1 C 96 % 1 lf 1014,6 hPa 0,0 l/m 2 min 0 min 377 W/m 18,8 km/h (3 Bft) 97,87 %
28.07.2016 11:38 19,6 C 21,1 C 21,1 C 96 % 1 lf 1014,5 hPa 0,0 l/m 2 min 0 min 424 W/m 16,7 km/h (3 Bft) 97,87 %
28.07.2016 11:40 19,6 C 20,6 C 20,6 C 96 % 0 lf 1014,4 hPa 0,0 l/m 2 min 0 min 375 W/m 18,8 km/h (3 Bft) 95,65 %
28.07.2016 11:42 19,7 C 21,7 C 21,1 C 96 % 0 lf 1014,4 hPa 0,0 l/m 0 min 0 min 367 W/m 18,8 km/h (3 Bft) 100,00 %
28.07.2016 11:44 19,8 C 21,7 C 21,1 C 95 % 0 lf 1014,5 hPa 0,0 l/m 2 min 0 min 435 W/m 16,7 km/h (3 Bft) 100,00 %
28.07.2016 11:46 19,8 C 21,1 C 21,1 C 95 % 0 lf 1014,4 hPa 0,0 l/m 2 min 0 min 404 W/m 18,8 km/h (3 Bft) 97,87 %
28.07.2016 11:48 19,8 C 21,1 C 21,1 C 95 % 0 lf 1014,5 hPa 0,0 l/m 2 min 0 min 409 W/m 18,8 km/h (3 Bft) 97,87 %
28.07.2016 11:50 19,9 C 21,7 C 21,1 C 95 % 0 lf 1014,4 hPa 0,0 l/m 2 min 0 min 388 W/m 12,6 km/h (3 Bft) 100,00 %
28.07.2016 11:52 20,0 C 22,2 C 21,7 C 94 % 0 lf 1014,4 hPa 0,0 l/m 2 min 0 min 415 W/m 10,5 km/h (2 Bft) 100,00 %
28.07.2016 11:54 20,1 C 22,2 C 21,7 C 94 % 0 lf 1014,4 hPa 0,0 l/m 2 min 0 min 422 W/m 18,8 km/h (3 Bft) 100,00 %
28.07.2016 11:56 20,1 C 22,2 C 21,7 C 94 % 0 lf 1014,4 hPa 0,0 l/m 2 min 0 min 481 W/m 16,7 km/h (3 Bft) 97,87 %
28.07.2016 11:58 20,2 C 23,3 C 22,2 C 94 % 0 lf 1014,4 hPa 0,0 l/m 2 min 0 min 486 W/m 12,6 km/h (3 Bft) 95,74 %
28.07.2016 12:00 20,3 C 23,9 C 22,2 C 93 % 0 lf 1014,3 hPa 0,0 l/m 2 min 0 min 426 W/m 27,2 km/h (4 Bft) 97,87 %
28.07.2016 12:02 20,3 C 23,9 C 22,8 C 93 % 0 lf 1014,3 hPa 0,0 l/m 2 min 0 min 479 W/m 18,8 km/h (3 Bft) 97,87 %
28.07.2016 12:04 20,4 C 25,6 C 23,9 C 93 % 0 lf 1014,3 hPa 0,0 l/m 2 min 0 min 524 W/m 12,6 km/h (3 Bft) 95,74 %
28.07.2016 12:06 20,5 C 26,1 C 25,0 C 93 % 0 lf 1014,3 hPa 0,0 l/m 2 min 0 min 710 W/m 20,9 km/h (4 Bft) 89,36 %
28.07.2016 12:08 20,6 C 26,7 C 25,0 C 92 % 0 lf 1014,3 hPa 0,0 l/m 2 min 0 min 887 W/m 18,8 km/h (3 Bft) 97,87 %
28.07.2016 12:10 20,7 C 26,7 C 25,0 C 91 % 0 lf 1014,4 hPa 0,0 l/m 2 min 0 min 664 W/m 16,7 km/h (3 Bft) 95,74 %
28.07.2016 12:12 20,8 C 26,1 C 23,9 C 90 % 0 lf 1014,3 hPa 0,0 l/m 2 min 0 min 461 W/m 14,6 km/h (3 Bft) 97,87 %
28.07.2016 12:14 20,9 C 24,4 C 23,3 C 90 % 0 lf 1014,3 hPa 0,0 l/m 0 min 0 min 376 W/m 20,9 km/h (4 Bft) 97,83 %
28.07.2016 12:16 20,9 C 23,9 C 22,8 C 89 % 0 lf 1014,3 hPa 0,0 l/m 0 min 0 min 335 W/m 18,8 km/h (3 Bft) 97,87 %
28.07.2016 12:18 20,9 C 23,9 C 22,2 C 89 % 0 lf 1014,3 hPa 0,0 l/m 0 min 0 min 376 W/m 16,7 km/h (3 Bft) 97,87 %
28.07.2016 12:20 21,0 C 23,9 C 22,8 C 88 % 0 lf 1014,3 hPa 0,0 l/m 0 min 0 min 381 W/m 8,4 km/h (2 Bft) 97,87 %
28.07.2016 12:22 21,0 C 23,9 C 22,8 C 89 % 0 lf 1014,3 hPa 0,0 l/m 0 min 0 min 336 W/m 12,6 km/h (3 Bft) 97,87 %
28.07.2016 12:24 21,1 C 23,3 C 22,2 C 88 % 0 lf 1014,3 hPa 0,0 l/m 0 min 0 min 285 W/m 20,9 km/h (4 Bft) 97,87 %
28.07.2016 12:26 21,1 C 22,8 C 21,7 C 88 % 0 lf 1014,3 hPa 0,0 l/m 0 min 0 min 254 W/m 12,6 km/h (3 Bft) 97,83 %
28.07.2016 12:28 21,1 C 22,8 C 21,7 C 87 % 0 lf 1014,3 hPa 0,0 l/m 0 min 0 min 213 W/m 8,4 km/h (2 Bft) 97,87 %
28.07.2016 12:30 21,1 C 23,3 C 21,7 C 87 % 0 lf 1014,3 hPa 0,0 l/m 0 min 0 min 216 W/m 10,5 km/h (2 Bft) 95,74 %
28.07.2016 12:32 21,1 C 22,8 C 21,7 C 87 % 0 lf 1014,3 hPa 0,0 l/m 0 min 0 min 254 W/m 14,6 km/h (3 Bft) 97,87 %
28.07.2016 12:34 21,1 C 22,8 C 21,7 C 87 % 0 lf 1014,3 hPa 0,0 l/m 0 min 0 min 281 W/m 10,5 km/h (2 Bft) 97,87 %
28.07.2016 12:36 21,1 C 22,8 C 22,2 C 87 % 0 lf 1014,3 hPa 0,0 l/m 0 min 0 min 291 W/m 12,6 km/h (3 Bft) 100,00 %
28.07.2016 12:38 21,1 C 22,8 C 21,7 C 87 % 0 lf 1014,3 hPa 0,0 l/m 0 min 0 min 310 W/m 12,6 km/h (3 Bft) 97,83 %
28.07.2016 12:40 21,1 C 22,8 C 22,2 C 87 % 0 lf 1014,4 hPa 0,0 l/m 0 min 0 min 301 W/m 10,5 km/h (2 Bft) 97,87 %
28.07.2016 12:42 21,1 C 22,8 C 22,2 C 87 % 0 lf 1014,3 hPa 0,0 l/m 0 min 0 min 318 W/m 14,6 km/h (3 Bft) 100,00 %
28.07.2016 12:44 21,1 C 22,8 C 22,8 C 87 % 0 lf 1014,3 hPa 0,0 l/m 0 min 0 min 325 W/m 14,6 km/h (3 Bft) 97,87 %
28.07.2016 12:46 21,1 C 22,2 C 22,8 C 87 % 0 lf 1014,3 hPa 0,0 l/m 0 min 0 min 320 W/m 12,6 km/h (3 Bft) 97,87 %
28.07.2016 12:48 21,1 C 22,2 C 22,8 C 87 % 0 lf 1014,3 hPa 0,0 l/m 0 min 0 min 332 W/m 12,6 km/h (3 Bft) 93,62 %
28.07.2016 12:50 21,1 C 22,8 C 22,2 C 87 % 0 lf 1014,3 hPa 0,0 l/m 0 min 0 min 321 W/m 16,7 km/h (3 Bft) 97,83 %
28.07.2016 12:52 21,1 C 22,2 C 22,8 C 87 % 0 lf 1014,3 hPa 0,0 l/m 0 min 0 min 325 W/m 16,7 km/h (3 Bft) 97,87 %
28.07.2016 12:54 21,1 C 22,8 C 22,8 C 87 % 0 lf 1014,3 hPa 0,0 l/m 0 min 0 min 340 W/m 10,5 km/h (2 Bft) 97,87 %
28.07.2016 12:56 21,1 C 22,8 C 22,8 C 87 % 0 lf 1014,3 hPa 0,0 l/m 0 min 0 min 367 W/m 12,6 km/h (3 Bft) 97,87 %
28.07.2016 12:58 21,1 C 23,3 C 22,8 C 87 % 0 lf 1014,3 hPa 0,0 l/m 2 min 0 min 416 W/m 14,6 km/h (3 Bft) 97,87 %
28.07.2016 13:00 21,2 C 23,9 C 23,3 C 87 % 0 lf 1014,3 hPa 0,0 l/m 2 min 0 min 455 W/m 16,7 km/h (3 Bft) 97,87 %
28.07.2016 13:02 21,2 C 23,3 C 22,8 C 87 % 0 lf 1014,3 hPa 0,0 l/m 0 min 0 min 367 W/m 23,0 km/h (4 Bft) 97,96 %
28.07.2016 13:04 21,1 C 22,8 C 22,8 C 86 % 0 lf 1014,3 hPa 0,0 l/m 0 min 0 min 324 W/m 20,9 km/h (4 Bft) 95,74 %
28.07.2016 13:06 21,1 C 22,2 C 21,7 C 86 % 0 lf 1014,3 hPa 0,0 l/m 0 min 0 min 265 W/m 20,9 km/h (4 Bft) 97,87 %
28.07.2016 13:08 21,1 C 22,2 C 21,7 C 86 % 0 lf 1014,3 hPa 0,0 l/m 0 min 0 min 231 W/m 14,6 km/h (3 Bft) 95,74 %
28.07.2016 13:10 21,1 C 22,2 C 21,7 C 86 % 0 lf 1014,3 hPa 0,0 l/m 0 min 0 min 197 W/m 14,6 km/h (3 Bft) 95,74 %
28.07.2016 13:12 21,1 C 22,2 C 21,1 C 86 % 0 lf 1014,2 hPa 0,0 l/m 0 min 0 min 173 W/m 12,6 km/h (3 Bft) 95,65 %
28.07.2016 13:14 21,1 C 22,2 C 21,1 C 86 % 0 lf 1014,2 hPa 0,0 l/m 0 min 0 min 167 W/m 8,4 km/h (2 Bft) 89,36 %
28.07.2016 13:16 21,1 C 22,2 C 21,1 C 86 % 0 lf 1014,2 hPa 0,0 l/m 0 min 0 min 170 W/m 10,5 km/h (2 Bft) 91,49 %
28.07.2016 13:18 21,1 C 22,2 C 21,1 C 86 % 0 lf 1014,2 hPa 0,0 l/m 0 min 0 min 178 W/m 8,4 km/h (2 Bft) 91,49 %
28.07.2016 13:20 21,1 C 22,2 C 21,1 C 86 % 0 lf 1014,2 hPa 0,0 l/m 0 min 0 min 217 W/m 14,6 km/h (3 Bft) 93,62 %
28.07.2016 13:22 21,1 C 23,3 C 21,7 C 86 % 0 lf 1014,2 hPa 0,0 l/m 0 min 0 min 332 W/m 14,6 km/h (3 Bft) 93,62 %
28.07.2016 13:24 21,1 C 23,9 C 22,2 C 86 % 0 lf 1014,2 hPa 0,0 l/m 0 min 0 min 403 W/m 16,7 km/h (3 Bft) 91,30 %
28.07.2016 13:26 21,1 C 23,3 C 22,8 C 86 % 0 lf 1014,2 hPa 0,0 l/m 2 min 0 min 425 W/m 20,9 km/h (4 Bft) 91,49 %
28.07.2016 13:28 21,1 C 23,3 C 23,3 C 86 % 0 lf 1014,2 hPa 0,0 l/m 0 min 0 min 405 W/m 18,8 km/h (3 Bft) 93,62 %
28.07.2016 13:30 21,1 C 23,9 C 23,3 C 86 % 0 lf 1014,2 hPa 0,0 l/m 0 min 0 min 385 W/m 16,7 km/h (3 Bft) 89,36 %
28.07.2016 13:32 21,2 C 23,9 C 22,8 C 86 % 0 lf 1014,2 hPa 0,0 l/m 0 min 0 min 293 W/m 16,7 km/h (3 Bft) 93,62 %
28.07.2016 13:34 21,2 C 23,3 C 21,7 C 85 % 0 lf 1014,2 hPa 0,0 l/m 0 min 0 min 224 W/m 20,9 km/h (4 Bft) 91,49 %
28.07.2016 13:36 21,2 C 22,8 C 21,7 C 85 % 0 lf 1014,2 hPa 0,0 l/m 0 min 0 min 200 W/m 14,6 km/h (3 Bft) 93,48 %
28.07.2016 13:38 21,1 C 22,8 C 21,7 C 85 % 0 lf 1014,2 hPa 0,0 l/m 0 min 0 min 250 W/m 20,9 km/h (4 Bft) 93,62 %
28.07.2016 13:40 21,2 C 23,9 C 22,2 C 85 % 0 lf 1014,1 hPa 0,0 l/m 0 min 0 min 346 W/m 10,5 km/h (2 Bft) 93,62 %
28.07.2016 13:42 21,2 C 24,4 C 23,3 C 85 % 0 lf 1014,1 hPa 0,0 l/m 2 min 0 min 512 W/m 8,4 km/h (2 Bft) 97,87 %
28.07.2016 13:44 21,3 C 25,0 C 24,4 C 86 % 0 lf 1014,1 hPa 0,0 l/m 2 min 0 min 466 W/m 16,7 km/h (3 Bft) 95,74 %
28.07.2016 13:46 21,4 C 24,4 C 23,9 C 86 % 0 lf 1014,1 hPa 0,0 l/m 2 min 0 min 417 W/m 16,7 km/h (3 Bft) 93,62 %
28.07.2016 13:48 21,4 C 23,9 C 23,9 C 85 % 0 lf 1014,1 hPa 0,0 l/m 0 min 0 min 374 W/m 16,7 km/h (3 Bft) 91,30 %
28.07.2016 13:50 21,4 C 23,9 C 23,9 C 85 % 0 lf 1014,1 hPa 0,0 l/m 0 min 0 min 369 W/m 12,6 km/h (3 Bft) 95,74 %
28.07.2016 13:52 21,5 C 24,4 C 23,9 C 85 % 0 lf 1014,1 hPa 0,0 l/m 2 min 0 min 466 W/m 18,8 km/h (3 Bft) 93,62 %
28.07.2016 13:54 21,6 C 23,3 C 23,9 C 84 % 0 lf 1014,0 hPa 0,0 l/m 2 min 0 min 426 W/m 20,9 km/h (4 Bft) 93,62 %
28.07.2016 13:56 21,6 C 22,8 C 23,3 C 83 % 0 lf 1014,0 hPa 0,0 l/m 0 min 0 min 337 W/m 20,9 km/h (4 Bft) 91,49 %
28.07.2016 13:58 21,6 C 23,9 C 23,3 C 84 % 0 lf 1014,0 hPa 0,0 l/m 0 min 0 min 398 W/m 16,7 km/h (3 Bft) 95,74 %
28.07.2016 14:00 21,6 C 24,4 C 23,9 C 83 % 0 lf 1014,0 hPa 0,0 l/m 2 min 0 min 544 W/m 20,9 km/h (4 Bft) 95,65 %
28.07.2016 14:02 21,7 C 25,0 C 23,9 C 83 % 0 lf 1013,9 hPa 0,0 l/m 2 min 0 min 503 W/m 12,6 km/h (3 Bft) 95,74 %
28.07.2016 14:04 21,7 C 25,0 C 23,9 C 84 % 0 lf 1013,9 hPa 0,0 l/m 0 min 0 min 364 W/m 8,4 km/h (2 Bft) 97,87 %
28.07.2016 14:06 21,8 C 25,0 C 23,9 C 83 % 0 lf 1013,9 hPa 0,0 l/m 0 min 0 min 388 W/m 8,4 km/h (2 Bft) 91,49 %
28.07.2016 14:08 21,8 C 25,0 C 24,4 C 83 % 0 lf 1013,9 hPa 0,0 l/m 2 min 0 min 423 W/m 16,7 km/h (3 Bft) 93,62 %
28.07.2016 14:10 21,9 C 26,1 C 24,4 C 83 % 0 lf 1013,9 hPa 0,0 l/m 2 min 0 min 489 W/m 14,6 km/h (3 Bft) 97,87 %
28.07.2016 14:12 22,0 C 26,1 C 24,4 C 83 % 0 lf 1013,9 hPa 0,0 l/m 2 min 0 min 423 W/m 14,6 km/h (3 Bft) 97,22 %
28.07.2016 14:14 22,1 C 25,6 C 24,4 C 82 % 0 lf 1013,9 hPa 0,0 l/m 0 min 0 min 397 W/m 16,7 km/h (3 Bft) 95,65 %
28.07.2016 14:16 22,1 C 25,6 C 24,4 C 82 % 0 lf 1013,9 hPa 0,0 l/m 2 min 0 min 454 W/m 14,6 km/h (3 Bft) 91,49 %
28.07.2016 14:18 22,2 C 26,1 C 24,4 C 82 % 0 lf 1013,7 hPa 0,0 l/m 2 min 0 min 452 W/m 14,6 km/h (3 Bft) 97,87 %
28.07.2016 14:20 22,2 C 25,6 C 24,4 C 81 % 0 lf 1013,7 hPa 0,0 l/m 2 min 0 min 453 W/m 20,9 km/h (4 Bft) 97,87 %
28.07.2016 14:22 22,2 C 25,6 C 24,4 C 80 % 0 lf 1013,8 hPa 0,0 l/m 2 min 0 min 497 W/m 18,8 km/h (3 Bft) 95,74 %
28.07.2016 14:24 22,3 C 25,6 C 24,4 C 80 % 0 lf 1013,7 hPa 0,0 l/m 2 min 0 min 434 W/m 23,0 km/h (4 Bft) 93,62 %
28.07.2016 14:26 22,3 C 25,6 C 24,4 C 79 % 0 lf 1013,7 hPa 0,0 l/m 2 min 0 min 423 W/m 18,8 km/h (3 Bft) 93,48 %
28.07.2016 14:28 22,3 C 27,2 C 25,6 C 80 % 0 lf 1013,7 hPa 0,0 l/m 2 min 0 min 484 W/m 18,8 km/h (3 Bft) 95,74 %
28.07.2016 14:30 22,4 C 26,7 C 25,6 C 79 % 0 lf 1013,7 hPa 0,0 l/m 2 min 0 min 647 W/m 23,0 km/h (4 Bft) 97,87 %
28.07.2016 14:32 22,5 C 27,8 C 26,7 C 80 % 0 lf 1013,7 hPa 0,0 l/m 2 min 0 min 562 W/m 16,7 km/h (3 Bft) 93,62 %
28.07.2016 14:34 22,6 C 27,8 C 27,2 C 80 % 0 lf 1013,7 hPa 0,0 l/m 2 min 0 min 680 W/m 16,7 km/h (3 Bft) 97,87 %
28.07.2016 14:36 22,7 C 28,9 C 27,2 C 80 % 0 lf 1013,7 hPa 0,0 l/m 2 min 0 min 680 W/m 14,6 km/h (3 Bft) 95,74 %
28.07.2016 14:38 22,8 C 30,0 C 28,3 C 80 % 0 lf 1013,7 hPa 0,0 l/m 2 min 0 min 680 W/m 23,0 km/h (4 Bft) 95,65 %
28.07.2016 14:40 22,9 C 30,0 C 28,9 C 79 % 0 lf 1013,7 hPa 0,0 l/m 2 min 0 min 672 W/m 14,6 km/h (3 Bft) 95,74 %
28.07.2016 14:42 23,0 C 27,8 C 27,2 C 78 % 0 lf 1013,6 hPa 0,0 l/m 2 min 0 min 568 W/m 27,2 km/h (4 Bft) 100,00 %
28.07.2016 14:44 23,1 C 26,7 C 26,1 C 78 % 0 lf 1013,6 hPa 0,0 l/m 2 min 0 min 419 W/m 18,8 km/h (3 Bft) 95,74 %
28.07.2016 14:46 23,2 C 27,2 C 25,6 C 78 % 0 lf 1013,5 hPa 0,0 l/m 2 min 0 min 461 W/m 16,7 km/h (3 Bft) 100,00 %
28.07.2016 14:48 23,2 C 27,2 C 26,1 C 78 % 0 lf 1013,6 hPa 0,0 l/m 2 min 0 min 489 W/m 23,0 km/h (4 Bft) 97,87 %
28.07.2016 14:50 23,2 C 27,2 C 25,6 C 77 % 0 lf 1013,6 hPa 0,0 l/m 2 min 0 min 509 W/m 16,7 km/h (3 Bft) 100,00 %
28.07.2016 14:52 23,3 C 29,4 C 27,8 C 77 % 0 lf 1013,5 hPa 0,0 l/m 2 min 0 min 611 W/m 16,7 km/h (3 Bft) 100,00 %
28.07.2016 14:54 23,4 C 29,4 C 27,8 C 76 % 0 lf 1013,6 hPa 0,0 l/m 2 min 0 min 942 W/m 16,7 km/h (3 Bft) 97,87 %
28.07.2016 14:56 23,5 C 30,6 C 29,4 C 76 % 0 lf 1013,5 hPa 0,0 l/m 2 min 0 min 942 W/m 14,6 km/h (3 Bft) 97,87 %
28.07.2016 14:58 23,6 C 30,6 C 28,9 C 77 % 0 lf 1013,5 hPa 0,0 l/m 2 min 0 min 611 W/m 18,8 km/h (3 Bft) 100,00 %
28.07.2016 15:00 23,7 C 30,6 C 29,4 C 76 % 0 lf 1013,5 hPa 0,0 l/m 2 min 0 min 446 W/m 18,8 km/h (3 Bft) 100,00 %
28.07.2016 15:02 23,8 C 28,9 C 28,3 C 75 % 0 lf 1013,5 hPa 0,0 l/m 2 min 0 min 431 W/m 16,7 km/h (3 Bft) 100,00 %
28.07.2016 15:04 23,8 C 27,2 C 26,1 C 75 % 0 lf 1013,4 hPa 0,0 l/m 0 min 0 min 296 W/m 20,9 km/h (4 Bft) 97,87 %
28.07.2016 15:06 23,9 C 26,7 C 25,6 C 74 % 0 lf 1013,4 hPa 0,0 l/m 0 min 0 min 322 W/m 20,9 km/h (4 Bft) 97,87 %
28.07.2016 15:08 23,9 C 26,7 C 25,6 C 75 % 0 lf 1013,4 hPa 0,0 l/m 2 min 0 min 396 W/m 14,6 km/h (3 Bft) 97,87 %
28.07.2016 15:10 23,9 C 27,2 C 26,1 C 74 % 0 lf 1013,4 hPa 0,0 l/m 2 min 0 min 419 W/m 18,8 km/h (3 Bft) 100,00 %
28.07.2016 15:12 23,9 C 28,3 C 27,8 C 74 % 0 lf 1013,4 hPa 0,0 l/m 2 min 0 min 936 W/m 18,8 km/h (3 Bft) 100,00 %
28.07.2016 15:14 23,9 C 27,2 C 27,2 C 74 % 0 lf 1013,4 hPa 0,0 l/m 2 min 0 min 404 W/m 18,8 km/h (3 Bft) 100,00 %
28.07.2016 15:16 24,0 C 28,9 C 28,9 C 74 % 0 lf 1013,3 hPa 0,0 l/m 2 min 0 min 427 W/m 16,7 km/h (3 Bft) 95,74 %
28.07.2016 15:18 24,1 C 29,4 C 29,4 C 75 % 0 lf 1013,4 hPa 0,0 l/m 2 min 0 min 427 W/m 16,7 km/h (3 Bft) 97,87 %
28.07.2016 15:20 24,2 C 28,3 C 28,9 C 74 % 0 lf 1013,3 hPa 0,0 l/m 0 min 0 min 311 W/m 29,3 km/h (5 Bft) 100,00 %
28.07.2016 15:22 24,1 C 27,2 C 26,7 C 73 % 0 lf 1013,3 hPa 0,0 l/m 0 min 0 min 347 W/m 27,2 km/h (4 Bft) 97,87 %
28.07.2016 15:24 24,1 C 27,2 C 27,8 C 72 % 0 lf 1013,3 hPa 0,0 l/m 2 min 0 min 397 W/m 18,8 km/h (3 Bft) 97,83 %
28.07.2016 15:26 24,1 C 27,8 C 27,8 C 73 % 0 lf 1013,2 hPa 0,0 l/m 2 min 0 min 837 W/m 20,9 km/h (4 Bft) 100,00 %
28.07.2016 15:28 24,1 C 27,2 C 28,9 C 73 % 0 lf 1013,2 hPa 0,0 l/m 2 min 0 min 731 W/m 25,1 km/h (4 Bft) 97,87 %
28.07.2016 15:30 24,1 C 27,8 C 28,9 C 74 % 0 lf 1013,1 hPa 0,0 l/m 2 min 0 min 717 W/m 25,1 km/h (4 Bft) 97,87 %
28.07.2016 15:32 24,2 C 28,3 C 28,9 C 75 % 0 lf 1013,2 hPa 0,0 l/m 0 min 0 min 341 W/m 18,8 km/h (3 Bft) 100,00 %
28.07.2016 15:34 24,2 C 28,3 C 28,3 C 73 % 0 lf 1013,1 hPa 0,0 l/m 2 min 0 min 435 W/m 14,6 km/h (3 Bft) 100,00 %
28.07.2016 15:36 24,2 C 28,3 C 28,9 C 73 % 0 lf 1013,1 hPa 0,0 l/m 2 min 0 min 408 W/m 25,1 km/h (4 Bft) 97,83 %
28.07.2016 15:38 24,2 C 28,9 C 29,4 C 73 % 0 lf 1013,2 hPa 0,0 l/m 2 min 0 min 828 W/m 29,3 km/h (5 Bft) 97,87 %
28.07.2016 15:40 24,2 C 28,9 C 28,3 C 71 % 0 lf 1013,1 hPa 0,0 l/m 2 min 0 min 791 W/m 31,4 km/h (5 Bft) 100,00 %
28.07.2016 15:42 24,2 C 27,8 C 27,2 C 71 % 0 lf 1013,1 hPa 0,0 l/m 2 min 0 min 385 W/m 23,0 km/h (4 Bft) 100,00 %
28.07.2016 15:44 24,2 C 28,9 C 28,3 C 71 % 0 lf 1013,1 hPa 0,0 l/m 2 min 0 min 582 W/m 20,9 km/h (4 Bft) 97,87 %
28.07.2016 15:46 24,3 C 30,6 C 30,6 C 72 % 0 lf 1013,0 hPa 0,0 l/m 2 min 0 min 784 W/m 18,8 km/h (3 Bft) 97,87 %
28.07.2016 15:48 24,3 C 30,6 C 31,1 C 71 % 0 lf 1013,1 hPa 0,0 l/m 2 min 0 min 826 W/m 18,8 km/h (3 Bft) 97,83 %
28.07.2016 15:50 24,4 C 30,0 C 30,6 C 70 % 0 lf 1012,9 hPa 0,0 l/m 2 min 0 min 855 W/m 25,1 km/h (4 Bft) 93,62 %
28.07.2016 15:52 24,5 C 31,7 C 32,8 C 71 % 0 lf 1012,9 hPa 0,0 l/m 2 min 0 min 879 W/m 14,6 km/h (3 Bft) 97,87 %
28.07.2016 15:54 24,6 C 29,4 C 31,1 C 70 % 0 lf 1013,0 hPa 0,0 l/m 2 min 0 min 875 W/m 33,5 km/h (5 Bft) 91,49 %
28.07.2016 15:56 24,6 C 28,3 C 29,4 C 69 % 0 lf 1012,8 hPa 0,0 l/m 2 min 0 min 774 W/m 20,9 km/h (4 Bft) 97,87 %
28.07.2016 15:58 24,6 C 28,9 C 30,0 C 71 % 0 lf 1012,9 hPa 0,0 l/m 2 min 0 min 440 W/m 12,6 km/h (3 Bft) 93,62 %
28.07.2016 16:00 24,7 C 28,3 C 28,9 C 70 % 0 lf 1012,8 hPa 0,0 l/m 2 min 0 min 615 W/m 27,2 km/h (4 Bft) 93,48 %
28.07.2016 16:02 24,7 C 27,2 C 27,8 C 69 % 0 lf 1012,8 hPa 0,0 l/m 2 min 0 min 371 W/m 25,1 km/h (4 Bft) 92,86 %
28.07.2016 16:04 24,6 C 28,3 C 28,3 C 69 % 0 lf 1012,9 hPa 0,0 l/m 2 min 0 min 556 W/m 31,4 km/h (5 Bft) 93,22 %
28.07.2016 16:06 24,6 C 28,3 C 28,9 C 68 % 0 lf 1012,8 hPa 0,0 l/m 2 min 0 min 708 W/m 27,2 km/h (4 Bft) 93,62 %
28.07.2016 16:08 24,6 C 28,9 C 30,0 C 68 % 0 lf 1012,8 hPa 0,0 l/m 2 min 0 min 671 W/m 20,9 km/h (4 Bft) 91,49 %
28.07.2016 16:10 24,6 C 30,0 C 31,7 C 69 % 0 lf 1012,8 hPa 0,0 l/m 2 min 0 min 756 W/m 20,9 km/h (4 Bft) 86,96 %
28.07.2016 16:12 24,7 C 31,1 C 32,8 C 70 % 0 lf 1012,7 hPa 0,0 l/m 2 min 0 min 787 W/m 18,8 km/h (3 Bft) 93,62 %
28.07.2016 16:14 24,8 C 31,7 C 33,3 C 69 % 0 lf 1012,7 hPa 0,0 l/m 2 min 0 min 814 W/m 25,1 km/h (4 Bft) 93,62 %
28.07.2016 16:16 24,8 C 30,6 C 32,8 C 69 % 0 lf 1012,8 hPa 0,0 l/m 2 min 0 min 845 W/m 20,9 km/h (4 Bft) 93,62 %
28.07.2016 16:18 24,9 C 30,6 C 32,2 C 69 % 0 lf 1012,7 hPa 0,0 l/m 2 min 0 min 344 W/m 16,7 km/h (3 Bft) 93,62 %
28.07.2016 16:20 24,9 C 29,4 C 31,1 C 68 % 0 lf 1012,7 hPa 0,0 l/m 0 min 0 min 311 W/m 20,9 km/h (4 Bft) 91,49 %
28.07.2016 16:22 25,0 C 28,9 C 29,4 C 67 % 0 lf 1012,7 hPa 0,0 l/m 0 min 0 min 333 W/m 25,1 km/h (4 Bft) 93,48 %
28.07.2016 16:24 25,0 C 28,9 C 28,9 C 68 % 0 lf 1012,7 hPa 0,0 l/m 2 min 0 min 367 W/m 20,9 km/h (4 Bft) 91,49 %
28.07.2016 16:26 25,0 C 27,8 C 27,8 C 67 % 0 lf 1012,7 hPa 0,0 l/m 0 min 0 min 258 W/m 12,6 km/h (3 Bft) 89,36 %
28.07.2016 16:28 25,0 C 27,8 C 27,2 C 69 % 0 lf 1012,6 hPa 0,0 l/m 0 min 0 min 273 W/m 10,5 km/h (2 Bft) 89,36 %
28.07.2016 16:30 24,9 C 28,9 C 28,3 C 68 % 0 lf 1012,5 hPa 0,0 l/m 0 min 0 min 330 W/m 16,7 km/h (3 Bft) 89,36 %
28.07.2016 16:32 24,9 C 28,9 C 29,4 C 68 % 0 lf 1012,5 hPa 0,0 l/m 2 min 0 min 691 W/m 18,8 km/h (3 Bft) 89,13 %
28.07.2016 16:34 25,0 C 27,8 C 27,8 C 69 % 0 lf 1012,4 hPa 0,0 l/m 2 min 0 min 516 W/m 23,0 km/h (4 Bft) 91,49 %
28.07.2016 16:36 25,0 C 28,9 C 29,4 C 69 % 0 lf 1012,5 hPa 0,0 l/m 2 min 0 min 552 W/m 18,8 km/h (3 Bft) 91,49 %
28.07.2016 16:38 25,1 C 30,6 C 29,4 C 69 % 0 lf 1012,4 hPa 0,0 l/m 2 min 0 min 748 W/m 8,4 km/h (2 Bft) 89,36 %
28.07.2016 16:40 25,1 C 30,6 C 28,9 C 68 % 0 lf 1012,4 hPa 0,0 l/m 2 min 0 min 733 W/m 10,5 km/h (2 Bft) 89,36 %
28.07.2016 16:42 25,1 C 30,0 C 28,3 C 68 % 0 lf 1012,4 hPa 0,0 l/m 2 min 0 min 675 W/m 14,6 km/h (3 Bft) 93,62 %
28.07.2016 16:44 25,1 C 28,3 C 27,2 C 67 % 0 lf 1012,4 hPa 0,0 l/m 0 min 0 min 258 W/m 27,2 km/h (4 Bft) 91,30 %
28.07.2016 16:46 25,1 C 27,8 C 26,1 C 66 % 0 lf 1012,4 hPa 0,0 l/m 0 min 0 min 244 W/m 20,9 km/h (4 Bft) 93,62 %
28.07.2016 16:48 25,1 C 27,2 C 25,6 C 66 % 0 lf 1012,4 hPa 0,0 l/m 0 min 0 min 229 W/m 18,8 km/h (3 Bft) 93,62 %
28.07.2016 16:50 25,1 C 26,1 C 25,0 C 66 % 0 lf 1012,5 hPa 0,0 l/m 0 min 0 min 234 W/m 18,8 km/h (3 Bft) 93,62 %
28.07.2016 16:52 25,0 C 26,1 C 25,0 C 67 % 0 lf 1012,4 hPa 0,0 l/m 0 min 0 min 238 W/m 12,6 km/h (3 Bft) 91,49 %
28.07.2016 16:54 24,9 C 26,1 C 24,4 C 67 % 0 lf 1012,5 hPa 0,0 l/m 0 min 0 min 208 W/m 14,6 km/h (3 Bft) 95,74 %
28.07.2016 16:56 24,9 C 26,7 C 25,0 C 68 % 0 lf 1012,4 hPa 0,0 l/m 0 min 0 min 217 W/m 14,6 km/h (3 Bft) 95,65 %
28.07.2016 16:58 24,9 C 27,8 C 25,6 C 68 % 0 lf 1012,5 hPa 0,0 l/m 2 min 0 min 573 W/m 16,7 km/h (3 Bft) 97,87 %
28.07.2016 17:00 24,9 C 29,4 C 26,7 C 68 % 0 lf 1012,4 hPa 0,0 l/m 2 min 0 min 717 W/m 20,9 km/h (4 Bft) 97,87 %
28.07.2016 17:02 24,9 C 30,0 C 27,8 C 68 % 0 lf 1012,4 hPa 0,0 l/m 2 min 0 min 721 W/m 14,6 km/h (3 Bft) 95,74 %
28.07.2016 17:04 25,0 C 30,6 C 28,3 C 68 % 0 lf 1012,4 hPa 0,0 l/m 2 min 0 min 697 W/m 18,8 km/h (3 Bft) 97,87 %
28.07.2016 17:06 25,1 C 30,0 C 28,3 C 68 % 0 lf 1012,5 hPa 0,0 l/m 2 min 0 min 649 W/m 16,7 km/h (3 Bft) 97,87 %
28.07.2016 17:08 25,1 C 30,0 C 27,8 C 67 % 0 lf 1012,3 hPa 0,0 l/m 2 min 0 min 681 W/m 20,9 km/h (4 Bft) 97,83 %
28.07.2016 17:10 25,1 C 28,9 C 27,2 C 67 % 0 lf 1012,4 hPa 0,0 l/m 2 min 0 min 633 W/m 25,1 km/h (4 Bft) 97,87 %
28.07.2016 17:12 25,1 C 27,8 C 25,6 C 66 % 0 lf 1012,3 hPa 0,0 l/m 0 min 0 min 224 W/m 23,0 km/h (4 Bft) 95,74 %
28.07.2016 17:14 25,1 C 26,7 C 25,0 C 67 % 0 lf 1012,4 hPa 0,0 l/m 0 min 0 min 220 W/m 20,9 km/h (4 Bft) 97,87 %
28.07.2016 17:16 25,1 C 27,2 C 25,0 C 67 % 0 lf 1012,3 hPa 0,0 l/m 0 min 0 min 226 W/m 12,6 km/h (3 Bft) 97,87 %
28.07.2016 17:18 25,1 C 28,3 C 25,6 C 68 % 0 lf 1012,4 hPa 0,0 l/m 2 min 0 min 441 W/m 16,7 km/h (3 Bft) 100,00 %
28.07.2016 17:20 25,1 C 28,3 C 26,1 C 68 % 0 lf 1012,3 hPa 0,0 l/m 2 min 0 min 480 W/m 14,6 km/h (3 Bft) 95,65 %
28.07.2016 17:22 25,1 C 28,3 C 25,6 C 67 % 0 lf 1012,3 hPa 0,0 l/m 2 min 0 min 519 W/m 14,6 km/h (3 Bft) 97,87 %
28.07.2016 17:24 25,1 C 27,8 C 25,6 C 67 % 0 lf 1012,3 hPa 0,0 l/m 2 min 0 min 290 W/m 18,8 km/h (3 Bft) 100,00 %
28.07.2016 17:26 25,1 C 27,2 C 25,0 C 66 % 0 lf 1012,4 hPa 0,0 l/m 2 min 0 min 314 W/m 18,8 km/h (3 Bft) 97,87 %
28.07.2016 17:28 25,0 C 27,2 C 24,4 C 66 % 0 lf 1012,3 hPa 0,0 l/m 2 min 0 min 309 W/m 18,8 km/h (3 Bft) 100,00 %
28.07.2016 17:30 24,9 C 27,2 C 25,0 C 67 % 0 lf 1012,4 hPa 0,0 l/m 0 min 0 min 241 W/m 12,6 km/h (3 Bft) 97,87 %
28.07.2016 17:32 24,9 C 26,7 C 25,0 C 67 % 0 lf 1012,3 hPa 0,0 l/m 0 min 0 min 237 W/m 12,6 km/h (3 Bft) 97,83 %
28.07.2016 17:34 24,9 C 26,1 C 25,0 C 67 % 0 lf 1012,3 hPa 0,0 l/m 2 min 0 min 376 W/m 25,1 km/h (4 Bft) 97,87 %
28.07.2016 17:36 24,9 C 26,1 C 25,0 C 67 % 0 lf 1012,2 hPa 0,0 l/m 2 min 0 min 338 W/m 20,9 km/h (4 Bft) 97,62 %
28.07.2016 17:38 24,8 C 26,1 C 25,6 C 67 % 0 lf 1012,2 hPa 0,0 l/m 2 min 0 min 380 W/m 20,9 km/h (4 Bft) 100,00 %
28.07.2016 17:40 24,8 C 26,1 C 25,6 C 68 % 0 lf 1012,3 hPa 0,0 l/m 2 min 0 min 352 W/m 20,9 km/h (4 Bft) 97,87 %
28.07.2016 17:42 24,8 C 26,1 C 25,0 C 67 % 0 lf 1012,3 hPa 0,0 l/m 0 min 0 min 253 W/m 20,9 km/h (4 Bft) 97,87 %
28.07.2016 17:44 24,8 C 26,1 C 25,0 C 67 % 0 lf 1012,3 hPa 0,0 l/m 0 min 0 min 232 W/m 18,8 km/h (3 Bft) 100,00 %
28.07.2016 17:46 24,7 C 25,6 C 24,4 C 67 % 0 lf 1012,3 hPa 0,0 l/m 0 min 0 min 215 W/m 12,6 km/h (3 Bft) 97,87 %
28.07.2016 17:48 24,7 C 25,6 C 24,4 C 67 % 0 lf 1012,4 hPa 0,0 l/m 0 min 0 min 198 W/m 12,6 km/h (3 Bft) 100,00 %
28.07.2016 17:50 24,6 C 25,0 C 24,4 C 67 % 0 lf 1012,4 hPa 0,0 l/m 0 min 0 min 200 W/m 14,6 km/h (3 Bft) 95,74 %
28.07.2016 17:52 24,6 C 25,0 C 23,9 C 67 % 0 lf 1012,3 hPa 0,0 l/m 0 min 0 min 216 W/m 16,7 km/h (3 Bft) 100,00 %
28.07.2016 17:54 24,6 C 25,6 C 23,9 C 68 % 0 lf 1012,4 hPa 0,0 l/m 2 min 0 min 254 W/m 16,7 km/h (3 Bft) 100,00 %
28.07.2016 17:56 24,5 C 26,7 C 24,4 C 68 % 0 lf 1012,4 hPa 0,0 l/m 2 min 0 min 392 W/m 10,5 km/h (2 Bft) 100,00 %
28.07.2016 17:58 24,5 C 27,8 C 25,0 C 68 % 0 lf 1012,3 hPa 0,0 l/m 2 min 0 min 631 W/m 16,7 km/h (3 Bft) 100,00 %
28.07.2016 18:00 24,5 C 27,8 C 25,6 C 68 % 0 lf 1012,3 hPa 0,0 l/m 2 min 0 min 643 W/m 25,1 km/h (4 Bft) 97,87 %
28.07.2016 18:02 24,6 C 27,8 C 25,6 C 66 % 0 lf 1012,3 hPa 0,0 l/m 2 min 0 min 592 W/m 20,9 km/h (4 Bft) 97,87 %
28.07.2016 18:04 24,6 C 26,7 C 25,0 C 66 % 0 lf 1012,3 hPa 0,0 l/m 2 min 0 min 580 W/m 29,3 km/h (5 Bft) 97,87 %
28.07.2016 18:06 24,6 C 26,7 C 24,4 C 66 % 0 lf 1012,3 hPa 0,0 l/m 2 min 0 min 562 W/m 25,1 km/h (4 Bft) 95,65 %
28.07.2016 18:08 24,6 C 26,1 C 24,4 C 66 % 0 lf 1012,3 hPa 0,0 l/m 2 min 0 min 512 W/m 27,2 km/h (4 Bft) 100,00 %
28.07.2016 18:10 24,6 C 26,1 C 24,4 C 66 % 0 lf 1012,3 hPa 0,0 l/m 2 min 0 min 369 W/m 23,0 km/h (4 Bft) 95,74 %
28.07.2016 18:12 24,6 C 25,6 C 23,9 C 66 % 0 lf 1012,3 hPa 0,0 l/m 0 min 0 min 203 W/m 20,9 km/h (4 Bft) 95,74 %
28.07.2016 18:14 24,5 C 25,0 C 23,3 C 66 % 0 lf 1012,4 hPa 0,0 l/m 0 min 0 min 155 W/m 18,8 km/h (3 Bft) 95,74 %
28.07.2016 18:16 24,4 C 25,0 C 23,3 C 66 % 0 lf 1012,3 hPa 0,0 l/m 0 min 0 min 143 W/m 25,1 km/h (4 Bft) 97,87 %
28.07.2016 18:18 24,4 C 24,4 C 23,3 C 66 % 0 lf 1012,3 hPa 0,0 l/m 0 min 0 min 150 W/m 16,7 km/h (3 Bft) 93,48 %
28.07.2016 18:20 24,3 C 24,4 C 23,3 C 67 % 0 lf 1012,3 hPa 0,0 l/m 0 min 0 min 168 W/m 20,9 km/h (4 Bft) 97,87 %
28.07.2016 18:22 24,3 C 24,4 C 22,8 C 66 % 0 lf 1012,3 hPa 0,0 l/m 0 min 0 min 196 W/m 31,4 km/h (5 Bft) 95,74 %
28.07.2016 18:24 24,2 C 24,4 C 22,8 C 65 % 0 lf 1012,3 hPa 0,0 l/m 2 min 0 min 218 W/m 23,0 km/h (4 Bft) 97,87 %
28.07.2016 18:26 24,2 C 24,4 C 22,8 C 66 % 0 lf 1012,3 hPa 0,0 l/m 0 min 0 min 174 W/m 23,0 km/h (4 Bft) 93,62 %
28.07.2016 18:28 24,1 C 24,4 C 22,8 C 66 % 0 lf 1012,4 hPa 0,0 l/m 0 min 0 min 156 W/m 31,4 km/h (5 Bft) 95,74 %
28.07.2016 18:30 24,0 C 24,4 C 22,8 C 66 % 0 lf 1012,3 hPa 0,0 l/m 0 min 0 min 159 W/m 18,8 km/h (3 Bft) 93,48 %
28.07.2016 18:32 24,0 C 24,4 C 22,8 C 66 % 0 lf 1012,3 hPa 0,0 l/m 0 min 0 min 163 W/m 14,6 km/h (3 Bft) 91,49 %
28.07.2016 18:34 23,9 C 24,4 C 22,8 C 67 % 0 lf 1012,3 hPa 0,0 l/m 0 min 0 min 173 W/m 23,0 km/h (4 Bft) 95,74 %
28.07.2016 18:36 23,9 C 24,4 C 22,8 C 67 % 0 lf 1012,3 hPa 0,0 l/m 0 min 0 min 170 W/m 16,7 km/h (3 Bft) 95,74 %
28.07.2016 18:38 23,9 C 24,4 C 22,8 C 67 % 0 lf 1012,3 hPa 0,0 l/m 0 min 0 min 172 W/m 23,0 km/h (4 Bft) 91,49 %
28.07.2016 18:40 23,9 C 24,4 C 22,8 C 67 % 0 lf 1012,3 hPa 0,0 l/m 0 min 0 min 165 W/m 12,6 km/h (3 Bft) 95,74 %
28.07.2016 18:42 23,8 C 24,4 C 23,3 C 68 % 0 lf 1012,2 hPa 0,0 l/m 0 min 0 min 172 W/m 14,6 km/h (3 Bft) 93,48 %
28.07.2016 18:44 23,8 C 24,4 C 23,3 C 67 % 0 lf 1012,2 hPa 0,0 l/m 0 min 0 min 179 W/m 20,9 km/h (4 Bft) 93,62 %
28.07.2016 18:46 23,8 C 25,0 C 23,3 C 67 % 0 lf 1012,3 hPa 0,0 l/m 0 min 0 min 181 W/m 20,9 km/h (4 Bft) 95,74 %
28.07.2016 18:48 23,8 C 24,4 C 23,3 C 67 % 0 lf 1012,2 hPa 0,0 l/m 0 min 0 min 179 W/m 16,7 km/h (3 Bft) 97,87 %
28.07.2016 18:50 23,8 C 25,0 C 23,3 C 67 % 0 lf 1012,2 hPa 0,0 l/m 0 min 0 min 178 W/m 12,6 km/h (3 Bft) 95,74 %
28.07.2016 18:52 23,8 C 25,0 C 23,3 C 68 % 0 lf 1012,2 hPa 0,0 l/m 0 min 0 min 177 W/m 14,6 km/h (3 Bft) 93,62 %
28.07.2016 18:54 23,8 C 24,4 C 23,3 C 67 % 0 lf 1012,2 hPa 0,0 l/m 2 min 0 min 185 W/m 16,7 km/h (3 Bft) 95,65 %
28.07.2016 18:56 23,8 C 25,0 C 23,3 C 67 % 0 lf 1012,2 hPa 0,0 l/m 0 min 0 min 175 W/m 14,6 km/h (3 Bft) 93,62 %
28.07.2016 18:58 23,8 C 25,0 C 23,3 C 68 % 0 lf 1012,3 hPa 0,0 l/m 0 min 0 min 171 W/m 14,6 km/h (3 Bft) 91,49 %
28.07.2016 19:00 23,8 C 25,0 C 23,3 C 67 % 0 lf 1012,3 hPa 0,0 l/m 2 min 0 min 172 W/m 10,5 km/h (2 Bft) 97,87 %
28.07.2016 19:02 23,8 C 25,0 C 23,3 C 68 % 0 lf 1012,3 hPa 0,0 l/m 2 min 0 min 172 W/m 8,4 km/h (2 Bft) 95,74 %
28.07.2016 19:04 23,8 C 25,0 C 23,3 C 68 % 0 lf 1012,3 hPa 0,0 l/m 2 min 0 min 187 W/m 16,7 km/h (3 Bft) 97,87 %
28.07.2016 19:06 23,8 C 25,0 C 23,3 C 68 % 0 lf 1012,2 hPa 0,0 l/m 2 min 0 min 172 W/m 20,9 km/h (4 Bft) 97,83 %
28.07.2016 19:08 23,8 C 25,0 C 23,3 C 67 % 0 lf 1012,2 hPa 0,0 l/m 2 min 0 min 170 W/m 16,7 km/h (3 Bft) 93,62 %
28.07.2016 19:10 23,8 C 24,4 C 23,3 C 67 % 0 lf 1012,2 hPa 0,0 l/m 2 min 0 min 164 W/m 20,9 km/h (4 Bft) 95,74 %
28.07.2016 19:12 23,7 C 24,4 C 23,3 C 66 % 0 lf 1012,2 hPa 0,0 l/m 2 min 0 min 168 W/m 23,0 km/h (4 Bft) 97,87 %
28.07.2016 19:14 23,7 C 24,4 C 23,3 C 66 % 0 lf 1012,2 hPa 0,0 l/m 2 min 0 min 161 W/m 14,6 km/h (3 Bft) 97,87 %
28.07.2016 19:16 23,7 C 24,4 C 22,8 C 66 % 0 lf 1012,1 hPa 0,0 l/m 2 min 0 min 160 W/m 18,8 km/h (3 Bft) 97,83 %
28.07.2016 19:18 23,7 C 24,4 C 23,3 C 66 % 0 lf 1012,1 hPa 0,0 l/m 2 min 0 min 166 W/m 12,6 km/h (3 Bft) 97,87 %
28.07.2016 19:20 23,7 C 24,4 C 23,3 C 67 % 0 lf 1012,2 hPa 0,0 l/m 2 min 0 min 175 W/m 8,4 km/h (2 Bft) 95,74 %
28.07.2016 19:22 23,7 C 24,4 C 23,3 C 66 % 0 lf 1012,1 hPa 0,0 l/m 2 min 0 min 180 W/m 25,1 km/h (4 Bft) 97,87 %
28.07.2016 19:24 23,7 C 24,4 C 22,8 C 66 % 0 lf 1012,1 hPa 0,0 l/m 2 min 0 min 264 W/m 18,8 km/h (3 Bft) 95,74 %
28.07.2016 19:26 23,7 C 24,4 C 22,8 C 66 % 0 lf 1012,1 hPa 0,0 l/m 2 min 0 min 262 W/m 20,9 km/h (4 Bft) 95,74 %
28.07.2016 19:28 23,6 C 24,4 C 22,8 C 66 % 0 lf 1012,1 hPa 0,0 l/m 2 min 0 min 206 W/m 18,8 km/h (3 Bft) 93,48 %
28.07.2016 19:30 23,6 C 23,9 C 22,8 C 66 % 0 lf 1012,1 hPa 0,0 l/m 2 min 0 min 186 W/m 18,8 km/h (3 Bft) 95,74 %
28.07.2016 19:32 23,6 C 23,9 C 22,8 C 66 % 0 lf 1012,2 hPa 0,0 l/m 2 min 0 min 189 W/m 25,1 km/h (4 Bft) 97,87 %
28.07.2016 19:34 23,6 C 23,9 C 22,8 C 66 % 0 lf 1012,2 hPa 0,0 l/m 2 min 0 min 274 W/m 20,9 km/h (4 Bft) 93,62 %
28.07.2016 19:36 23,6 C 23,9 C 22,8 C 66 % 0 lf 1012,2 hPa 0,0 l/m 2 min 0 min 285 W/m 12,6 km/h (3 Bft) 97,87 %
28.07.2016 19:38 23,6 C 23,9 C 22,8 C 66 % 0 lf 1012,1 hPa 0,0 l/m 2 min 0 min 280 W/m 20,9 km/h (4 Bft) 93,62 %
28.07.2016 19:40 23,6 C 23,9 C 22,8 C 66 % 0 lf 1012,1 hPa 0,0 l/m 2 min 0 min 235 W/m 18,8 km/h (3 Bft) 95,65 %
28.07.2016 19:42 23,6 C 23,9 C 22,8 C 66 % 0 lf 1012,1 hPa 0,0 l/m 2 min 0 min 242 W/m 16,7 km/h (3 Bft) 95,74 %
28.07.2016 19:44 23,6 C 23,9 C 22,2 C 66 % 0 lf 1012,1 hPa 0,0 l/m 2 min 0 min 173 W/m 16,7 km/h (3 Bft) 95,74 %
28.07.2016 19:46 23,5 C 23,9 C 22,2 C 66 % 0 lf 1012,1 hPa 0,0 l/m 0 min 0 min 109 W/m 18,8 km/h (3 Bft) 93,62 %
28.07.2016 19:48 23,5 C 23,9 C 22,2 C 66 % 0 lf 1012,1 hPa 0,0 l/m 0 min 0 min 96 W/m 20,9 km/h (4 Bft) 95,74 %
28.07.2016 19:50 23,4 C 23,3 C 21,7 C 66 % 0 lf 1012,1 hPa 0,0 l/m 2 min 0 min 174 W/m 18,8 km/h (3 Bft) 95,74 %
28.07.2016 19:52 23,4 C 23,3 C 21,7 C 65 % 0 lf 1012,1 hPa 0,0 l/m 2 min 0 min 167 W/m 20,9 km/h (4 Bft) 95,65 %
28.07.2016 19:54 23,4 C 23,3 C 21,7 C 65 % 0 lf 1012,1 hPa 0,0 l/m 2 min 0 min 164 W/m 20,9 km/h (4 Bft) 93,62 %
28.07.2016 19:56 23,3 C 23,3 C 21,7 C 65 % 0 lf 1012,1 hPa 0,0 l/m 2 min 0 min 160 W/m 25,1 km/h (4 Bft) 91,49 %
28.07.2016 19:58 23,3 C 23,3 C 21,7 C 65 % 0 lf 1012,1 hPa 0,0 l/m 2 min 0 min 154 W/m 23,0 km/h (4 Bft) 95,74 %
28.07.2016 20:00 23,3 C 23,3 C 21,7 C 64 % 0 lf 1012,2 hPa 0,0 l/m 2 min 0 min 143 W/m 25,1 km/h (4 Bft) 95,74 %
28.07.2016 20:02 23,3 C 23,3 C 21,1 C 64 % 0 lf 1012,1 hPa 0,0 l/m 2 min 0 min 135 W/m 27,2 km/h (4 Bft) 91,49 %
28.07.2016 20:04 23,2 C 23,3 C 21,1 C 64 % 0 lf 1012,1 hPa 0,0 l/m 0 min 0 min 82 W/m 23,0 km/h (4 Bft) 95,65 %
28.07.2016 20:06 23,2 C 22,8 C 21,1 C 63 % 0 lf 1012,1 hPa 0,0 l/m 0 min 0 min 53 W/m 20,9 km/h (4 Bft) 89,36 %
28.07.2016 20:08 23,1 C 22,8 C 21,1 C 63 % 0 lf 1012,1 hPa 0,0 l/m 0 min 0 min 50 W/m 25,1 km/h (4 Bft) 93,62 %
28.07.2016 20:10 23,1 C 22,8 C 20,6 C 63 % 0 lf 1012,1 hPa 0,0 l/m 0 min 0 min 43 W/m 23,0 km/h (4 Bft) 95,74 %
28.07.2016 20:12 23,0 C 22,8 C 20,6 C 63 % 0 lf 1012,1 hPa 0,0 l/m 0 min 0 min 40 W/m 20,9 km/h (4 Bft) 97,87 %
28.07.2016 20:14 22,9 C 22,2 C 20,6 C 63 % 0 lf 1012,1 hPa 0,0 l/m 0 min 0 min 39 W/m 14,6 km/h (3 Bft) 93,62 %
28.07.2016 20:16 22,9 C 22,2 C 20,6 C 64 % 0 lf 1012,1 hPa 0,0 l/m 0 min 0 min 39 W/m 16,7 km/h (3 Bft) 95,65 %
28.07.2016 20:18 22,9 C 22,2 C 20,6 C 64 % 0 lf 1012,2 hPa 0,0 l/m 0 min 0 min 39 W/m 16,7 km/h (3 Bft) 91,49 %
28.07.2016 20:20 22,8 C 22,2 C 20,0 C 64 % 0 lf 1012,2 hPa 0,0 l/m 0 min 0 min 40 W/m 10,5 km/h (2 Bft) 95,74 %
28.07.2016 20:22 22,8 C 22,2 C 20,0 C 65 % 0 lf 1012,2 hPa 0,0 l/m 0 min 0 min 41 W/m 8,4 km/h (2 Bft) 95,74 %
28.07.2016 20:24 22,7 C 22,2 C 20,0 C 65 % 0 lf 1012,2 hPa 0,0 l/m 0 min 0 min 42 W/m 14,6 km/h (3 Bft) 95,74 %
28.07.2016 20:26 22,7 C 22,2 C 20,0 C 65 % 0 lf 1012,2 hPa 0,0 l/m 0 min 0 min 42 W/m 14,6 km/h (3 Bft) 95,74 %
28.07.2016 20:28 22,6 C 21,7 C 20,0 C 65 % 0 lf 1012,2 hPa 0,0 l/m 0 min 0 min 42 W/m 12,6 km/h (3 Bft) 95,65 %
28.07.2016 20:30 22,6 C 21,7 C 20,0 C 65 % 0 lf 1012,3 hPa 0,0 l/m 0 min 0 min 41 W/m 16,7 km/h (3 Bft) 93,62 %
28.07.2016 20:32 22,5 C 21,7 C 20,0 C 65 % 0 lf 1012,3 hPa 0,0 l/m 0 min 0 min 42 W/m 12,6 km/h (3 Bft) 93,62 %
28.07.2016 20:34 22,4 C 21,7 C 19,4 C 65 % 0 lf 1012,3 hPa 0,0 l/m 0 min 0 min 42 W/m 6,3 km/h (2 Bft) 95,74 %
28.07.2016 20:36 22,4 C 21,7 C 19,4 C 65 % 0 lf 1012,4 hPa 0,0 l/m 0 min 0 min 42 W/m 12,6 km/h (3 Bft) 95,74 %
28.07.2016 20:38 22,4 C 21,7 C 19,4 C 65 % 0 lf 1012,3 hPa 0,0 l/m 0 min 0 min 44 W/m 10,5 km/h (2 Bft) 97,83 %
28.07.2016 20:40 22,3 C 21,7 C 19,4 C 66 % 0 lf 1012,4 hPa 0,0 l/m 0 min 0 min 43 W/m 10,5 km/h (2 Bft) 95,74 %
28.07.2016 20:42 22,3 C 21,7 C 19,4 C 66 % 0 lf 1012,3 hPa 0,0 l/m 0 min 0 min 41 W/m 6,3 km/h (2 Bft) 97,87 %
28.07.2016 20:44 22,2 C 21,7 C 19,4 C 66 % 0 lf 1012,4 hPa 0,0 l/m 0 min 0 min 35 W/m 10,5 km/h (2 Bft) 95,74 %
28.07.2016 20:46 22,2 C 21,1 C 19,4 C 66 % 0 lf 1012,4 hPa 0,0 l/m 0 min 0 min 32 W/m 10,5 km/h (2 Bft) 95,74 %
28.07.2016 20:48 22,2 C 21,1 C 19,4 C 66 % 0 lf 1012,5 hPa 0,0 l/m 0 min 0 min 31 W/m 8,4 km/h (2 Bft) 93,62 %
28.07.2016 20:50 22,1 C 21,1 C 19,4 C 66 % 0 lf 1012,5 hPa 0,0 l/m 0 min 0 min 30 W/m 8,4 km/h (2 Bft) 100,00 %
28.07.2016 20:52 22,1 C 21,1 C 18,9 C 66 % 0 lf 1012,5 hPa 0,0 l/m 0 min 0 min 30 W/m 6,3 km/h (2 Bft) 100,00 %
28.07.2016 20:54 22,0 C 21,1 C 18,9 C 67 % 0 lf 1012,6 hPa 0,0 l/m 0 min 0 min 30 W/m 14,6 km/h (3 Bft) 95,74 %
28.07.2016 20:56 21,9 C 21,1 C 18,9 C 67 % 0 lf 1012,6 hPa 0,0 l/m 2 min 0 min 29 W/m 6,3 km/h (2 Bft) 97,87 %
28.07.2016 20:58 21,9 C 21,1 C 18,9 C 67 % 0 lf 1012,6 hPa 0,0 l/m 2 min 0 min 28 W/m 12,6 km/h (3 Bft) 100,00 %
28.07.2016 21:00 21,9 C 21,1 C 19,4 C 67 % 0 lf 1012,5 hPa 0,0 l/m 2 min 0 min 26 W/m 10,5 km/h (2 Bft) 97,87 %
28.07.2016 21:02 21,8 C 21,1 C 19,4 C 67 % 0 lf 1012,6 hPa 0,0 l/m 2 min 0 min 25 W/m 8,4 km/h (2 Bft) 95,65 %
28.07.2016 21:04 21,8 C 21,1 C 19,4 C 67 % 0 lf 1012,6 hPa 0,0 l/m 2 min 0 min 24 W/m 8,4 km/h (2 Bft) 97,87 %
28.07.2016 21:06 21,8 C 21,1 C 18,9 C 67 % 0 lf 1012,6 hPa 0,0 l/m 2 min 0 min 22 W/m 6,3 km/h (2 Bft) 97,87 %
28.07.2016 21:08 21,7 C 21,1 C 18,9 C 68 % 0 lf 1012,6 hPa 0,0 l/m 2 min 0 min 20 W/m 8,4 km/h (2 Bft) 97,87 %
28.07.2016 21:10 21,7 C 21,1 C 18,9 C 68 % 0 lf 1012,6 hPa 0,0 l/m 2 min 0 min 19 W/m 6,3 km/h (2 Bft) 95,74 %
28.07.2016 21:12 21,7 C 21,1 C 18,9 C 68 % 0 lf 1012,6 hPa 0,0 l/m 0 min 0 min 18 W/m 2,1 km/h (1 Bft) 93,62 %
28.07.2016 21:14 21,6 C 20,6 C 18,9 C 68 % 0 lf 1012,6 hPa 0,0 l/m 0 min 0 min 15 W/m 6,3 km/h (2 Bft) 95,65 %
28.07.2016 21:16 21,6 C 20,6 C 18,9 C 68 % 0 lf 1012,6 hPa 0,0 l/m 0 min 0 min 14 W/m 8,4 km/h (2 Bft) 95,74 %
28.07.2016 21:18 21,6 C 20,6 C 18,9 C 68 % 0 lf 1012,6 hPa 0,0 l/m 0 min 0 min 12 W/m 6,3 km/h (2 Bft) 97,87 %
28.07.2016 21:20 21,5 C 20,6 C 18,9 C 68 % 0 lf 1012,6 hPa 0,0 l/m 0 min 0 min 12 W/m 6,3 km/h (2 Bft) 95,74 %
28.07.2016 21:22 21,5 C 20,6 C 18,9 C 68 % 0 lf 1012,6 hPa 0,0 l/m 0 min 0 min 12 W/m 4,2 km/h (1 Bft) 95,74 %
28.07.2016 21:24 21,5 C 20,6 C 18,3 C 69 % 0 lf 1012,7 hPa 0,0 l/m 0 min 0 min 11 W/m 4,2 km/h (1 Bft) 97,87 %
28.07.2016 21:26 21,4 C 20,6 C 18,3 C 69 % 0 lf 1012,7 hPa 0,0 l/m 0 min 0 min 11 W/m 6,3 km/h (2 Bft) 91,30 %
28.07.2016 21:28 21,4 C 20,6 C 18,3 C 69 % 0 lf 1012,7 hPa 0,0 l/m 0 min 0 min 11 W/m 4,2 km/h (1 Bft) 93,62 %
28.07.2016 21:30 21,4 C 20,6 C 18,3 C 69 % 0 lf 1012,7 hPa 0,0 l/m 0 min 0 min 9 W/m 8,4 km/h (2 Bft) 95,74 %
28.07.2016 21:32 21,3 C 20,6 C 18,3 C 70 % 0 lf 1012,7 hPa 0,0 l/m 0 min 0 min 9 W/m 4,2 km/h (1 Bft) 97,87 %
28.07.2016 21:34 21,3 C 20,6 C 18,3 C 70 % 0 lf 1012,8 hPa 0,0 l/m 0 min 0 min 9 W/m 6,3 km/h (2 Bft) 95,74 %
28.07.2016 21:36 21,3 C 20,6 C 18,3 C 70 % 0 lf 1012,8 hPa 0,0 l/m 0 min 0 min 9 W/m 6,3 km/h (2 Bft) 95,74 %
28.07.2016 21:38 21,3 C 20,6 C 18,3 C 70 % 0 lf 1012,8 hPa 0,0 l/m 0 min 0 min 8 W/m 6,3 km/h (2 Bft) 95,65 %
28.07.2016 21:40 21,2 C 20,6 C 18,3 C 70 % 0 lf 1012,8 hPa 0,0 l/m 0 min 0 min 7 W/m 8,4 km/h (2 Bft) 93,62 %
28.07.2016 21:42 21,1 C 20,6 C 18,3 C 70 % 0 lf 1012,8 hPa 0,0 l/m 0 min 0 min 7 W/m 8,4 km/h (2 Bft) 97,87 %
28.07.2016 21:44 21,1 C 20,6 C 18,3 C 70 % 0 lf 1012,8 hPa 0,0 l/m 0 min 0 min 0 W/m 12,6 km/h (3 Bft) 97,87 %
28.07.2016 21:46 21,1 C 20,6 C 18,3 C 70 % 0 lf 1012,8 hPa 0,0 l/m 0 min 0 min 0 W/m 6,3 km/h (2 Bft) 95,74 %
28.07.2016 21:48 21,0 C 20,6 C 18,3 C 70 % 0 lf 1012,8 hPa 0,0 l/m 0 min 0 min 0 W/m 8,4 km/h (2 Bft) 97,87 %
28.07.2016 21:50 21,0 C 20,6 C 18,3 C 70 % 0 lf 1012,8 hPa 0,0 l/m 0 min 0 min 0 W/m 10,5 km/h (2 Bft) 97,83 %
28.07.2016 21:52 21,0 C 20,6 C 18,3 C 70 % 0 lf 1012,8 hPa 0,0 l/m 0 min 0 min 0 W/m 6,3 km/h (2 Bft) 100,00 %
28.07.2016 21:54 20,9 C 20,6 C 18,3 C 70 % 0 lf 1012,8 hPa 0,0 l/m 0 min 0 min 0 W/m 4,2 km/h (1 Bft) 97,87 %
28.07.2016 21:56 20,9 C 20,6 C 18,3 C 71 % 0 lf 1012,8 hPa 0,0 l/m 0 min 0 min 0 W/m 6,3 km/h (2 Bft) 97,87 %
28.07.2016 21:58 20,9 C 20,6 C 18,3 C 71 % 0 lf 1012,8 hPa 0,0 l/m 0 min 0 min 0 W/m 6,3 km/h (2 Bft) 93,62 %
28.07.2016 22:00 20,9 C 20,6 C 18,3 C 71 % 0 lf 1012,8 hPa 0,0 l/m 0 min 0 min 0 W/m 8,4 km/h (2 Bft) 100,00 %
28.07.2016 22:02 20,9 C 20,0 C 18,3 C 71 % 0 lf 1012,8 hPa 0,0 l/m 0 min 0 min 0 W/m 6,3 km/h (2 Bft) 97,83 %
28.07.2016 22:04 20,8 C 20,0 C 18,3 C 71 % 0 lf 1012,9 hPa 0,0 l/m 0 min 0 min 0 W/m 6,3 km/h (2 Bft) 95,74 %
28.07.2016 22:06 20,8 C 20,0 C 18,3 C 71 % 0 lf 1012,9 hPa 0,0 l/m 0 min 0 min 0 W/m 8,4 km/h (2 Bft) 100,00 %
28.07.2016 22:08 20,8 C 20,0 C 18,3 C 71 % 0 lf 1012,9 hPa 0,0 l/m 0 min 0 min 0 W/m 8,4 km/h (2 Bft) 100,00 %
28.07.2016 22:10 20,8 C 20,0 C 18,3 C 71 % 0 lf 1012,8 hPa 0,0 l/m 0 min 0 min 0 W/m 8,4 km/h (2 Bft) 100,00 %
28.07.2016 22:12 20,7 C 20,0 C 17,8 C 71 % 0 lf 1012,8 hPa 0,0 l/m 0 min 0 min 0 W/m 4,2 km/h (1 Bft) 95,65 %
28.07.2016 22:14 20,7 C 20,0 C 17,8 C 72 % 0 lf 1012,8 hPa 0,0 l/m 0 min 0 min 0 W/m 6,3 km/h (2 Bft) 97,87 %
28.07.2016 22:16 20,7 C 20,0 C 17,8 C 72 % 0 lf 1012,8 hPa 0,0 l/m 0 min 0 min 0 W/m 8,4 km/h (2 Bft) 95,74 %
28.07.2016 22:18 20,7 C 20,0 C 17,8 C 72 % 0 lf 1012,8 hPa 0,0 l/m 0 min 0 min 0 W/m 4,2 km/h (1 Bft) 97,87 %
28.07.2016 22:20 20,6 C 20,0 C 17,8 C 72 % 0 lf 1012,9 hPa 0,0 l/m 0 min 0 min 0 W/m 6,3 km/h (2 Bft) 97,87 %
28.07.2016 22:22 20,6 C 20,0 C 17,8 C 72 % 0 lf 1012,9 hPa 0,0 l/m 0 min 0 min 0 W/m 8,4 km/h (2 Bft) 95,74 %
28.07.2016 22:24 20,6 C 19,4 C 17,8 C 72 % 0 lf 1012,8 hPa 0,0 l/m 0 min 0 min 0 W/m 6,3 km/h (2 Bft) 93,48 %
28.07.2016 22:26 20,5 C 19,4 C 17,2 C 72 % 0 lf 1012,8 hPa 0,0 l/m 0 min 0 min 0 W/m 4,2 km/h (1 Bft) 93,62 %
28.07.2016 22:28 20,5 C 19,4 C 17,2 C 72 % 0 lf 1012,8 hPa 0,0 l/m 0 min 0 min 0 W/m 6,3 km/h (2 Bft) 93,62 %
28.07.2016 22:30 20,4 C 19,4 C 17,2 C 72 % 0 lf 1012,8 hPa 0,0 l/m 0 min 0 min 0 W/m 6,3 km/h (2 Bft) 95,74 %
28.07.2016 22:32 20,4 C 19,4 C 17,2 C 72 % 0 lf 1012,8 hPa 0,0 l/m 0 min 0 min 0 W/m 4,2 km/h (1 Bft) 95,74 %
28.07.2016 22:34 20,4 C 18,9 C 17,2 C 73 % 0 lf 1012,8 hPa 0,0 l/m 0 min 0 min 0 W/m 6,3 km/h (2 Bft) 97,87 %
28.07.2016 22:36 20,4 C 18,9 C 16,7 C 73 % 0 lf 1012,8 hPa 0,0 l/m 0 min 0 min 0 W/m 4,2 km/h (1 Bft) 91,30 %
28.07.2016 22:38 20,3 C 18,9 C 16,7 C 73 % 0 lf 1012,8 hPa 0,0 l/m 0 min 0 min 0 W/m 4,2 km/h (1 Bft) 95,74 %
28.07.2016 22:40 20,3 C 18,9 C 16,7 C 73 % 0 lf 1012,8 hPa 0,0 l/m 0 min 0 min 0 W/m 4,2 km/h (1 Bft) 93,62 %
28.07.2016 22:42 20,3 C 18,9 C 16,7 C 73 % 0 lf 1012,8 hPa 0,0 l/m 0 min 0 min 0 W/m 2,1 km/h (1 Bft) 93,62 %
28.07.2016 22:44 20,2 C 18,3 C 16,7 C 73 % 0 lf 1012,8 hPa 0,0 l/m 0 min 0 min 0 W/m 6,3 km/h (2 Bft) 95,74 %
28.07.2016 22:46 20,2 C 18,3 C 16,1 C 73 % 0 lf 1012,8 hPa 0,0 l/m 0 min 0 min 0 W/m 4,2 km/h (1 Bft) 95,74 %
28.07.2016 22:48 20,2 C 18,3 C 16,1 C 73 % 0 lf 1012,8 hPa 0,0 l/m 0 min 0 min 0 W/m 6,3 km/h (2 Bft) 95,65 %
28.07.2016 22:50 20,1 C 18,3 C 16,1 C 73 % 0 lf 1012,8 hPa 0,0 l/m 0 min 0 min 0 W/m 2,1 km/h (1 Bft) 97,87 %
28.07.2016 22:52 20,1 C 18,3 C 16,1 C 73 % 0 lf 1012,8 hPa 0,0 l/m 0 min 0 min 0 W/m 2,1 km/h (1 Bft) 93,62 %
28.07.2016 22:54 20,0 C 17,8 C 16,1 C 73 % 0 lf 1012,8 hPa 0,0 l/m 0 min 0 min 0 W/m 2,1 km/h (1 Bft) 97,87 %
28.07.2016 22:56 19,9 C 17,8 C 15,6 C 73 % 0 lf 1012,8 hPa 0,0 l/m 0 min 0 min 0 W/m 2,1 km/h (1 Bft) 97,87 %
28.07.2016 22:58 19,9 C 17,8 C 15,6 C 74 % 0 lf 1012,8 hPa 0,0 l/m 0 min 0 min 0 W/m 4,2 km/h (1 Bft) 97,87 %
28.07.2016 23:00 19,9 C 17,8 C 15,6 C 74 % 0 lf 1012,8 hPa 0,0 l/m 0 min 0 min 0 W/m 6,3 km/h (2 Bft) 97,83 %
28.07.2016 23:02 19,8 C 17,8 C 15,6 C 74 % 0 lf 1012,9 hPa 0,0 l/m 0 min 0 min 0 W/m 4,2 km/h (1 Bft) 97,87 %
28.07.2016 23:04 19,8 C 17,8 C 15,6 C 74 % 0 lf 1012,9 hPa 0,0 l/m 0 min 0 min 0 W/m 4,2 km/h (1 Bft) 97,87 %
28.07.2016 23:06 19,7 C 17,8 C 15,6 C 75 % 0 lf 1013,0 hPa 0,0 l/m 0 min 0 min 0 W/m 6,3 km/h (2 Bft) 95,74 %
28.07.2016 23:08 19,7 C 17,8 C 15,6 C 75 % 0 lf 1012,9 hPa 0,0 l/m 0 min 0 min 0 W/m 4,2 km/h (1 Bft) 93,62 %
28.07.2016 23:10 19,6 C 17,8 C 15,6 C 75 % 0 lf 1012,9 hPa 0,0 l/m 0 min 0 min 0 W/m 4,2 km/h (1 Bft) 91,49 %
28.07.2016 23:12 19,6 C 17,8 C 16,1 C 75 % 0 lf 1012,9 hPa 0,0 l/m 0 min 0 min 0 W/m 6,3 km/h (2 Bft) 97,83 %
28.07.2016 23:14 19,5 C 18,3 C 16,1 C 76 % 0 lf 1013,0 hPa 0,0 l/m 0 min 0 min 0 W/m 6,3 km/h (2 Bft) 95,74 %
28.07.2016 23:16 19,4 C 18,3 C 16,1 C 76 % 0 lf 1012,9 hPa 0,0 l/m 0 min 0 min 0 W/m 6,3 km/h (2 Bft) 95,74 %
28.07.2016 23:18 19,4 C 18,3 C 16,1 C 76 % 0 lf 1013,0 hPa 0,0 l/m 0 min 0 min 0 W/m 6,3 km/h (2 Bft) 97,87 %
28.07.2016 23:20 19,3 C 18,3 C 16,1 C 76 % 0 lf 1013,0 hPa 0,0 l/m 0 min 0 min 0 W/m 6,3 km/h (2 Bft) 97,87 %
28.07.2016 23:22 19,3 C 18,3 C 16,1 C 76 % 0 lf 1013,0 hPa 0,0 l/m 0 min 0 min 0 W/m 4,2 km/h (1 Bft) 95,74 %
28.07.2016 23:24 19,2 C 18,3 C 16,1 C 77 % 0 lf 1013,0 hPa 0,0 l/m 0 min 0 min 0 W/m 4,2 km/h (1 Bft) 95,65 %
28.07.2016 23:26 19,2 C 17,8 C 16,1 C 77 % 0 lf 1013,0 hPa 0,0 l/m 0 min 0 min 0 W/m 6,3 km/h (2 Bft) 97,87 %
28.07.2016 23:28 19,2 C 17,8 C 16,1 C 77 % 0 lf 1013,0 hPa 0,0 l/m 0 min 0 min 0 W/m 4,2 km/h (1 Bft) 95,74 %
28.07.2016 23:30 19,1 C 17,8 C 16,1 C 77 % 0 lf 1013,0 hPa 0,0 l/m 0 min 0 min 0 W/m 4,2 km/h (1 Bft) 97,87 %
28.07.2016 23:32 19,1 C 17,8 C 16,1 C 77 % 0 lf 1013,0 hPa 0,0 l/m 0 min 0 min 0 W/m 4,2 km/h (1 Bft) 97,87 %
28.07.2016 23:34 19,0 C 17,8 C 16,1 C 78 % 0 lf 1012,9 hPa 0,0 l/m 0 min 0 min 0 W/m 6,3 km/h (2 Bft) 89,13 %
28.07.2016 23:36 19,0 C 17,8 C 16,1 C 78 % 0 lf 1012,9 hPa 0,0 l/m 0 min 0 min 0 W/m 4,2 km/h (1 Bft) 93,62 %
28.07.2016 23:38 18,9 C 17,8 C 15,6 C 78 % 0 lf 1012,9 hPa 0,0 l/m 0 min 0 min 0 W/m 6,3 km/h (2 Bft) 97,87 %
28.07.2016 23:40 18,9 C 17,8 C 15,6 C 78 % 0 lf 1012,9 hPa 0,0 l/m 0 min 0 min 0 W/m 4,2 km/h (1 Bft) 97,87 %
28.07.2016 23:42 18,9 C 17,8 C 15,6 C 78 % 0 lf 1012,9 hPa 0,0 l/m 0 min 0 min 0 W/m 4,2 km/h (1 Bft) 95,74 %
28.07.2016 23:44 18,8 C 17,8 C 15,6 C 78 % 0 lf 1012,9 hPa 0,0 l/m 0 min 0 min 0 W/m 6,3 km/h (2 Bft) 95,74 %
28.07.2016 23:46 18,8 C 17,2 C 15,6 C 78 % 0 lf 1012,9 hPa 0,0 l/m 0 min 0 min 0 W/m 4,2 km/h (1 Bft) 97,83 %
28.07.2016 23:48 18,8 C 17,2 C 15,6 C 79 % 0 lf 1013,0 hPa 0,0 l/m 0 min 0 min 0 W/m 6,3 km/h (2 Bft) 97,87 %
28.07.2016 23:50 18,7 C 17,2 C 15,6 C 79 % 0 lf 1013,1 hPa 0,0 l/m 0 min 0 min 0 W/m 6,3 km/h (2 Bft) 95,74 %
28.07.2016 23:52 18,7 C 17,2 C 15,6 C 79 % 0 lf 1013,0 hPa 0,0 l/m 0 min 0 min 0 W/m 4,2 km/h (1 Bft) 91,49 %
28.07.2016 23:54 18,6 C 17,2 C 15,6 C 79 % 0 lf 1013,1 hPa 0,0 l/m 0 min 0 min 0 W/m 4,2 km/h (1 Bft) 93,62 %
28.07.2016 23:56 18,6 C 17,2 C 15,6 C 79 % 0 lf 1013,1 hPa 0,0 l/m 0 min 0 min 0 W/m 6,3 km/h (2 Bft) 93,62 %
28.07.2016 23:58 18,6 C 17,2 C 15,6 C 79 % 0 lf 1013,1 hPa 0,0 l/m 0 min 0 min 0 W/m 6,3 km/h (2 Bft) 95,65 %
_ Min-Zeit 06:56 03:54 22:56 20:06 00:00 19:16 - - - - 03:38 10:24
Minimum _ 17,5 C 16,7 C 15,6 C 63 % 0 lf 1012,1 hPa - - - - 2,1 km/h (1 Bft) 85,11 %
_ Max-Zeit 16:44 15:52 16:14 11:16 01:08 00:28 10:14 11:08 01:06 14:54 15:54 00:08
Maximum _ 25,2 C 31,7 C 33,3 C 98 % 15 lf 1016,0 hPa 0,6 l/m 2 min 2 min 942 W/m 33,5 km/h
S-SW (5 Bft)
100,00 %
Durchschnitt _ 20,5 C 21,0 C 19,9 C 82 % 6 lf 1014,0 hPa #2,6 l/m #5:30 h #2:26 h 198 W/m 12,1 km/h (2 Bft) 96,06 %
© 2016 W. Hausmann